GFSNIL_sfc_wetblb_000.txt.gz
Wetbulb
70.28 68.42 68.56 69.11 68.59 67.56 67.22 67.57 69.09 69.08 69.20 69.35 69.48 69.70 69.82 69.42 69.48 70.55 71.20 70.81 71.88 72.49
70.86 70.40 69.26 69.97 70.19 68.31 69.15 67.81 67.76 68.62 68.75 68.91 69.13 69.65 69.57 68.43 68.67 68.72 69.63 69.98 70.99 71.44
69.22 69.74 69.57 69.44 69.02 69.08 69.40 69.28 68.86 68.71 68.60 68.54 68.74 68.64 69.09 68.90 68.74 68.55 68.32 68.14 69.48 70.22
68.91 68.79 68.62 68.20 69.06 69.33 69.59 69.40 68.94 69.16 69.00 68.67 68.56 68.58 68.05 67.77 67.01 66.60 66.76 67.37 67.91 68.25
68.94 69.05 68.35 68.09 68.52 69.09 68.63 69.40 69.05 69.11 69.24 68.76 68.56 68.62 68.11 67.00 66.71 66.02 65.25 65.70 66.60 66.96
68.16 68.30 68.01 68.00 68.16 68.43 68.82 68.72 68.91 69.03 68.29 67.89 68.13 67.89 67.72 67.36 66.08 65.50 64.94 64.90 63.76 63.31
68.24 68.24 67.90 68.12 68.45 68.39 69.00 68.73 68.97 69.24 68.73 68.49 68.30 67.73 67.43 66.36 65.60 64.97 64.30 63.45 61.69 60.86
68.53 68.75 68.35 68.66 68.97 68.93 68.60 68.10 68.63 68.05 68.09 67.79 67.21 66.74 66.73 65.34 65.13 64.14 63.45 62.81 60.02 60.34
68.62 69.05 69.20 68.57 68.66 68.34 67.81 67.60 67.86 67.33 66.87 67.16 66.46 60.59 61.31 62.48 64.47 63.71 63.12 61.69 59.69 59.73
69.02 68.70 68.85 67.80 67.89 67.54 67.57 67.53 66.71 66.58 66.63 66.69 66.94 60.89 60.41 60.98 64.27 63.34 62.28 62.47 61.47 58.86
68.53 68.31 68.46 67.54 66.96 67.22 67.36 66.82 66.18 65.96 66.33 66.14 65.76 59.48 59.54 60.32 64.41 64.60 63.30 62.65 62.57 60.39
68.41 68.12 68.02 67.17 67.24 67.30 66.63 65.55 64.99 65.79 65.97 65.78 65.75 57.47 57.97 60.01 64.27 64.96 63.77 63.82 63.01 62.00
68.25 68.24 67.38 67.49 67.14 67.15 66.53 65.13 64.81 64.95 65.89 63.32 65.37 59.03 56.42 59.23 64.63 64.14 65.33 63.57 65.01 59.53
68.71 69.34 68.97 67.78 67.51 66.55 66.26 65.86 65.65 65.37 65.75 65.59 63.55 64.58 56.11 54.41 63.44 65.27 63.82 63.70 61.20 63.22

GFSNIL_sfc_wetblb_003.txt.gz
Wetbulb
71.26 68.81 68.81 69.66 69.10 68.12 67.97 68.01 70.28 69.99 69.99 70.09 70.12 70.08 71.12 69.75 69.35 71.13 69.99 69.66 71.03 70.62
71.61 71.07 70.23 70.84 70.70 68.83 70.21 69.00 69.23 69.55 69.63 70.11 69.93 69.80 70.57 68.35 69.21 69.32 70.32 69.04 70.17 69.02
69.46 70.39 70.76 70.41 69.96 70.10 70.20 70.24 69.77 69.39 69.37 69.59 69.79 70.60 70.84 69.58 69.85 69.50 67.45 67.24 67.87 68.65
69.54 69.64 69.99 69.21 69.21 69.86 70.48 70.43 69.82 69.46 69.03 69.26 69.27 69.70 70.03 69.15 68.67 67.53 68.25 68.18 67.68 67.58
69.78 69.68 69.04 69.03 69.00 69.73 69.31 70.02 69.59 69.35 69.29 68.92 68.94 70.00 68.62 67.81 67.74 67.13 65.90 65.85 65.52 64.46
69.37 69.35 69.54 69.40 69.26 69.18 68.87 69.04 69.10 69.45 68.88 68.61 68.70 68.39 68.51 68.41 67.21 66.59 66.00 65.47 64.59 63.56
69.22 69.80 69.47 69.84 69.42 69.48 69.60 69.20 69.03 69.77 69.31 68.49 68.28 68.32 68.22 67.76 67.25 66.26 65.78 65.44 64.18 63.44
69.53 70.19 70.22 69.69 69.60 69.44 69.25 68.69 69.00 69.36 68.61 67.86 67.99 66.35 67.67 67.63 66.37 65.88 65.15 65.09 64.83 63.89
69.33 69.62 69.62 69.65 69.31 69.30 68.85 68.91 69.33 67.85 68.27 68.64 66.14 62.12 61.80 63.61 65.01 65.76 64.85 63.87 64.21 64.70
69.31 69.29 69.54 68.91 68.68 68.36 68.77 69.93 69.31 67.66 67.41 67.77 68.66 60.59 62.43 63.07 64.13 64.56 65.24 64.80 64.27 63.13
69.28 69.02 69.38 69.12 68.68 69.13 69.12 69.49 68.59 68.00 68.21 67.88 66.92 59.51 60.48 62.01 64.30 64.65 65.83 65.90 65.79 64.94
69.04 68.96 69.11 68.32 68.83 69.29 69.21 68.03 67.41 68.02 67.15 68.38 68.01 58.12 58.28 61.69 64.26 65.34 65.70 65.82 66.04 65.58
69.31 69.07 68.66 69.37 69.48 69.34 69.09 66.73 65.78 65.76 66.92 63.62 67.65 61.77 56.55 59.46 63.31 65.49 64.04 65.19 65.45 60.75
69.76 70.76 70.20 69.98 65.51 67.68 67.82 67.57 66.82 65.37 66.98 66.87 64.81 62.34 56.84 55.27 63.30 62.76 62.61 62.71 62.84 61.91

GFSNIL_sfc_wetblb_006.txt.gz
Wetbulb
74.49 72.60 72.35 73.65 71.54 70.60 70.18 70.91 73.05 72.24 72.44 71.66 71.71 71.36 71.34 69.82 69.52 69.90 69.33 68.50 68.39 68.51
74.29 73.71 73.19 73.92 73.71 71.07 73.56 70.07 70.63 71.53 71.39 71.50 71.20 70.77 71.14 69.14 68.74 69.52 68.85 68.10 67.83 66.11
73.20 73.24 73.47 73.34 72.41 72.49 72.52 72.62 71.79 71.27 70.82 70.64 70.64 71.01 70.09 69.12 68.35 68.04 67.67 67.27 67.11 67.32
71.79 71.84 72.59 71.78 71.62 72.07 73.13 73.00 72.01 71.29 70.44 69.76 69.22 70.11 69.35 69.43 68.20 66.55 67.84 67.54 66.50 66.46
72.23 72.24 72.37 71.77 71.62 72.55 72.02 72.44 71.62 71.00 70.18 68.88 68.94 69.08 68.04 67.63 67.77 67.02 66.27 66.41 65.95 65.56
71.88 71.58 71.78 71.87 72.11 71.98 71.70 70.93 70.95 70.63 69.57 68.65 68.71 68.84 68.33 68.14 67.38 67.31 66.92 66.37 65.18 64.96
71.16 71.45 71.27 72.20 72.41 71.79 71.35 70.95 70.66 70.50 69.96 68.94 68.83 68.59 67.90 67.65 67.03 66.00 66.25 66.45 65.25 64.61
72.10 71.90 72.01 71.84 71.76 71.39 71.27 70.78 71.15 70.10 69.70 69.40 68.75 67.02 68.12 67.59 66.77 66.47 65.65 66.07 64.92 64.34
71.64 71.19 70.83 71.48 71.79 71.19 71.26 71.07 70.88 69.42 69.09 68.86 67.46 63.22 64.93 65.58 66.63 66.14 65.04 64.00 64.40 64.27
71.18 70.72 71.16 71.08 70.96 71.09 71.45 70.96 70.16 69.40 68.60 68.31 68.07 61.77 61.97 64.10 64.92 64.61 64.34 64.48 64.27 62.84
70.71 70.35 71.09 70.75 70.54 71.31 71.02 70.46 69.27 68.38 68.75 68.16 67.03 60.28 59.70 61.84 64.22 64.49 64.42 64.73 64.02 62.78
70.51 70.19 70.35 70.17 70.33 70.73 69.71 69.30 68.81 68.67 67.97 66.74 67.25 59.63 57.59 59.40 63.83 63.41 63.33 64.91 64.04 63.55
70.86 70.81 70.15 70.18 69.87 69.23 71.14 68.52 66.54 66.45 67.58 65.24 67.93 57.78 57.26 59.70 59.48 59.96 61.39 63.60 63.92 59.85
71.41 71.67 71.57 71.85 71.06 69.71 67.38 66.55 66.84 67.05 66.85 66.88 65.64 63.29 58.25 56.58 60.17 60.50 61.28 60.03 60.44 62.76

GFSNIL_sfc_wetblb_009.txt.gz
Wetbulb
64.55 63.94 64.66 66.63 65.23 63.13 62.70 64.27 65.60 65.03 65.97 65.71 66.18 65.97 65.46 64.30 63.82 64.31 63.67 62.97 62.93 62.79
65.77 65.39 65.84 65.56 64.88 63.83 66.00 65.22 65.55 65.48 65.00 65.64 66.09 66.01 64.61 64.17 63.80 63.08 62.90 63.05 62.89 61.79
67.38 66.69 65.91 65.48 64.43 64.76 64.34 65.79 65.24 65.57 65.42 65.35 64.83 65.13 64.77 63.32 63.58 62.66 62.64 63.11 62.16 62.03
67.80 66.80 66.35 65.38 64.78 64.99 65.50 66.22 65.71 65.64 65.09 64.74 64.75 64.91 64.40 63.56 63.76 63.18 62.57 62.65 61.96 61.50
64.37 64.84 65.69 64.93 64.82 65.09 64.90 65.49 65.25 65.06 64.96 64.78 64.39 64.23 63.57 62.50 63.45 62.46 61.77 61.78 61.10 61.41
65.29 64.42 64.32 64.94 64.89 64.95 64.73 64.33 64.17 64.88 64.30 64.00 63.85 63.79 63.83 63.38 63.08 62.36 62.17 62.33 61.36 60.48
65.70 64.95 65.32 65.38 65.38 65.37 65.10 64.68 65.09 65.18 64.57 64.21 64.27 64.24 64.38 64.00 62.24 62.81 61.90 62.70 62.00 60.79
65.86 65.56 65.83 65.69 66.05 65.60 65.10 65.56 65.01 64.64 64.30 64.26 64.91 65.41 61.75 63.12 64.05 63.42 61.56 62.06 61.72 61.43
66.82 66.07 65.75 65.60 65.71 64.98 64.64 65.02 65.09 63.88 63.23 63.41 65.13 62.44 62.95 62.39 60.35 61.28 60.34 59.85 60.28 60.65
66.58 65.78 65.61 65.91 66.10 65.79 65.41 64.26 62.84 63.87 63.58 62.74 63.23 62.20 61.78 62.86 59.98 59.51 59.67 59.73 59.69 59.96
65.37 65.44 65.69 65.37 65.23 65.14 64.02 63.12 63.27 63.19 62.83 63.14 63.29 60.54 60.00 60.82 58.95 59.87 60.48 60.39 60.11 59.69
65.83 65.01 65.28 65.39 65.04 64.73 64.35 63.58 63.93 63.41 62.49 62.34 61.36 58.00 57.64 58.46 57.93 58.22 57.60 59.23 59.78 59.72
65.84 65.53 65.27 65.41 65.61 64.73 64.13 63.29 62.82 60.58 62.45 60.78 59.19 57.81 57.33 57.24 56.67 54.13 56.37 58.16 58.72 58.66
66.41 66.19 66.04 66.02 65.30 64.48 63.71 59.36 59.38 60.70 61.58 61.03 59.93 58.02 56.37 55.44 55.62 57.24 56.82 55.38 56.10 55.72

GFSNIL_sfc_wetblb_015.txt.gz
Wetbulb
60.90 60.53 60.22 59.78 61.55 60.87 61.52 62.82 63.30 63.11 63.51 62.36 63.17 63.36 63.17 62.26 61.69 61.88 61.47 60.74 60.62 60.17
60.86 61.01 60.59 61.94 62.62 60.61 60.70 63.56 63.54 63.41 63.43 63.32 63.21 63.55 62.42 61.84 61.64 61.44 61.03 61.10 60.95 59.58
61.92 62.92 63.32 63.33 62.34 61.85 62.71 63.01 63.09 62.92 62.81 62.46 63.27 62.54 61.66 61.25 61.70 60.96 60.80 60.98 60.51 60.06
62.07 62.92 63.25 63.00 62.47 62.85 62.22 62.34 62.41 62.78 62.78 62.82 62.49 62.23 61.69 61.41 61.68 60.96 60.30 60.26 60.50 60.29
63.22 63.18 63.23 63.03 62.73 62.50 62.14 62.37 63.09 63.54 63.09 62.85 62.62 62.52 61.73 61.07 61.40 61.10 60.42 60.67 60.33 60.57
63.86 64.26 63.79 63.65 63.16 62.73 62.26 62.32 63.49 62.57 62.28 61.88 61.93 61.66 61.47 61.09 60.81 60.76 60.69 60.83 59.97 59.72
64.07 64.90 64.76 64.42 63.84 62.79 62.28 62.04 61.96 61.66 61.63 61.56 61.95 62.14 61.81 61.66 61.32 61.07 61.06 60.72 60.21 59.70
64.77 65.48 64.66 64.71 64.08 63.36 63.00 63.03 62.29 61.92 62.04 62.37 62.95 63.35 61.87 61.77 61.45 59.88 59.86 59.89 59.84 59.67
65.12 64.35 63.02 63.15 63.82 63.50 62.46 62.97 62.52 62.13 62.18 62.08 63.23 62.12 62.40 63.02 58.58 58.71 58.42 57.99 58.23 58.28
65.63 65.74 64.55 63.94 63.61 62.83 63.03 62.79 62.70 62.38 62.37 62.00 61.61 60.69 60.74 62.80 59.96 58.72 57.41 56.46 56.50 57.46
65.43 64.74 64.55 64.30 63.73 63.20 63.41 62.57 62.66 62.38 61.78 61.58 62.03 59.38 59.29 61.16 59.84 57.83 56.81 56.62 56.82 55.69
65.84 64.29 64.18 63.17 63.60 63.09 63.29 62.58 62.84 61.38 60.57 61.06 61.45 58.34 57.34 57.73 57.58 56.27 55.07 54.60 54.93 55.79
65.45 64.99 64.00 63.57 63.30 63.41 62.92 62.86 62.12 60.92 60.86 60.78 61.83 58.39 55.98 55.98 55.71 53.87 53.42 54.23 54.61 55.51
63.83 63.37 63.55 63.42 63.74 63.49 62.03 60.39 60.36 60.31 61.07 61.64 60.80 59.52 55.02 54.02 54.73 54.03 54.06 53.02 51.73 52.18

GFSNIL_sfc_wetblb_018.txt.gz
Wetbulb
67.75 65.02 64.19 63.44 61.78 62.96 63.72 65.00 65.80 65.07 65.38 64.63 64.80 65.31 65.47 64.98 64.49 64.40 64.64 63.98 63.45 64.02
65.23 62.76 62.48 62.67 62.78 62.89 64.14 64.99 65.27 65.11 65.36 64.89 65.31 65.51 65.71 64.72 64.43 64.52 64.23 64.14 63.65 63.12
63.62 62.57 62.35 62.34 63.10 62.73 63.33 64.27 64.94 64.76 65.16 65.25 65.05 65.40 64.78 64.14 64.45 64.07 63.61 63.50 63.36 63.22
63.06 62.48 62.84 63.20 64.21 63.66 63.77 64.12 64.81 64.92 64.76 64.43 64.47 64.92 64.25 64.09 64.16 63.74 63.62 63.56 62.89 63.10
63.62 63.35 63.55 63.61 64.05 64.08 64.12 64.30 64.74 64.41 64.67 64.87 64.98 64.81 64.14 64.08 64.29 63.57 63.14 63.70 63.02 62.95
63.29 63.26 63.87 64.38 64.20 63.46 63.46 63.68 64.25 64.58 64.58 64.72 64.61 64.45 64.39 63.88 63.70 63.31 63.01 63.23 62.94 62.97
63.28 63.80 64.14 64.50 64.34 63.77 63.66 63.48 63.57 64.47 64.54 63.79 63.90 63.72 64.12 64.28 63.76 63.52 63.44 63.57 62.99 62.84
64.72 65.26 65.39 65.65 65.72 65.20 63.48 63.55 63.66 63.90 63.70 63.72 63.22 63.86 64.58 64.61 64.10 63.94 63.46 63.11 62.96 62.63
65.16 64.86 64.68 63.82 63.01 63.46 64.65 63.61 63.37 63.46 63.66 63.42 63.92 62.50 62.62 64.63 63.90 63.48 62.18 61.86 62.39 61.55
64.13 63.34 63.72 63.34 62.92 63.42 63.94 63.68 63.50 63.70 63.79 64.16 64.14 60.88 60.82 62.86 64.65 62.69 61.87 61.67 61.00 60.24
62.62 63.06 63.78 63.43 62.79 63.59 64.38 63.63 63.12 63.44 63.81 64.07 64.67 59.98 59.15 60.83 63.79 63.19 62.07 60.53 59.95 59.72
63.26 63.44 64.05 64.48 64.17 64.44 64.13 64.12 63.53 63.91 64.27 63.64 64.19 58.50 58.23 60.13 62.10 61.09 60.24 58.92 58.00 58.07
64.80 64.25 65.15 64.83 64.55 65.17 64.76 64.50 64.23 62.27 62.63 61.08 62.99 58.50 57.31 59.20 60.80 58.89 57.50 57.67 58.56 56.06
66.31 65.91 65.35 64.49 64.62 64.36 63.48 63.17 61.76 61.53 61.51 62.01 61.65 62.16 56.91 56.01 58.03 57.92 57.36 57.10 56.07 56.08

GFSNIL_sfc_wetblb_021.txt.gz
Wetbulb
76.11 74.85 73.05 73.62 71.71 69.69 69.58 69.49 71.65 71.74 71.79 71.29 70.55 70.35 70.14 69.39 69.27 69.56 68.81 69.08 68.47 67.31
76.09 75.30 73.62 73.71 70.84 69.74 70.47 69.74 70.78 71.35 70.99 70.26 69.47 69.75 70.48 69.02 69.45 69.49 69.34 68.89 69.00 67.85
74.78 74.23 74.08 71.30 67.88 69.60 69.82 70.14 70.72 70.49 70.33 69.74 69.81 70.06 70.30 69.14 69.23 68.83 68.56 68.13 68.44 68.47
73.95 72.76 68.21 69.73 66.56 66.95 68.40 68.95 70.00 69.52 69.51 69.71 69.71 69.85 69.61 69.34 68.88 68.39 68.71 68.59 68.27 68.37
71.67 67.16 70.02 68.59 68.26 67.67 67.41 68.13 68.28 68.70 69.20 69.38 69.61 69.67 69.17 68.53 67.76 67.88 67.54 67.48 68.08 67.83
67.06 69.12 67.87 66.98 67.42 66.66 67.15 66.70 66.93 67.75 68.39 68.37 69.08 68.80 69.22 68.71 68.12 67.69 67.13 67.79 67.73 67.67
68.43 69.25 68.62 67.92 66.27 64.70 65.77 65.41 66.21 66.91 67.49 68.32 68.78 68.76 68.26 68.09 68.05 68.13 67.92 68.17 68.35 68.11
68.95 69.81 69.19 68.85 67.43 64.24 64.88 65.47 66.77 66.18 66.86 67.78 67.95 67.63 68.00 67.89 68.23 68.71 68.18 68.51 68.44 67.91
68.98 69.51 69.07 68.44 68.02 66.83 64.62 65.79 66.69 66.03 65.94 67.08 67.16 63.35 63.02 66.57 68.39 68.89 68.08 67.38 67.98 68.05
69.36 69.26 68.68 67.86 67.61 67.46 66.84 66.93 66.47 66.54 66.89 67.57 67.54 62.05 61.76 63.82 68.18 68.69 68.33 67.92 67.67 66.75
69.35 68.95 68.98 67.97 67.22 67.86 68.05 66.35 66.83 67.30 68.14 67.92 68.36 61.17 60.26 62.19 67.40 67.77 68.25 68.27 67.84 66.55
69.43 68.83 68.01 67.11 66.92 68.16 68.05 67.27 67.13 67.88 68.17 68.11 68.66 58.63 58.62 60.20 64.20 63.40 63.80 66.34 65.58 63.97
69.53 68.78 67.45 67.38 67.47 68.38 68.13 67.68 67.37 67.25 67.95 65.37 68.06 58.09 56.77 59.72 61.39 61.18 61.74 62.14 61.32 57.80
69.17 68.28 68.30 68.08 68.16 68.06 67.63 67.38 67.48 67.25 67.84 66.64 66.38 62.63 55.52 55.50 60.31 60.61 59.92 60.52 61.68 61.93

GFSNIL_sfc_wetblb_024.txt.gz
Wetbulb
78.79 77.29 77.01 77.40 75.98 73.60 71.72 72.02 74.31 73.37 73.66 73.75 73.52 72.98 72.05 70.33 70.10 70.72 69.72 69.90 69.80 68.05
78.46 77.95 77.51 78.01 77.81 74.85 74.76 72.50 73.19 73.55 72.79 73.21 73.15 72.39 71.89 70.22 70.60 70.41 70.21 69.73 70.07 68.94
77.60 78.08 78.21 77.62 76.82 75.67 74.12 73.10 72.24 72.66 72.57 72.41 72.17 71.64 72.17 70.56 70.65 70.26 68.78 68.88 69.43 69.69
77.21 77.36 76.99 76.75 76.39 75.11 73.51 72.65 72.06 72.30 71.81 71.60 70.99 71.48 71.50 71.04 69.72 69.47 69.71 69.71 69.20 69.08
77.94 77.41 76.44 75.52 74.11 73.62 72.13 71.87 71.10 70.55 70.50 70.39 71.07 71.62 70.87 69.85 69.12 68.96 68.69 68.66 69.01 68.71
76.93 76.31 74.91 74.34 73.45 71.40 70.92 71.02 68.49 69.90 69.58 69.87 70.56 70.89 71.15 70.25 69.19 68.85 68.90 69.06 68.80 68.70
76.64 75.96 75.33 74.86 72.16 70.58 70.99 70.45 69.56 68.18 69.92 70.65 70.84 70.48 70.01 70.14 69.78 69.47 69.27 69.65 69.65 69.38
77.67 75.49 74.68 75.73 73.43 72.48 71.56 70.33 69.66 68.69 69.09 69.97 69.65 69.04 70.12 70.17 69.15 69.25 69.58 69.58 69.61 69.85
75.97 74.01 75.22 74.50 73.37 71.74 71.60 70.85 70.26 69.52 69.50 69.71 68.70 64.14 64.44 68.38 69.02 69.17 69.54 69.12 69.57 69.93
75.76 74.21 73.69 73.71 72.32 72.23 69.93 69.24 70.58 69.81 69.50 69.31 69.77 61.86 62.43 64.40 68.71 68.90 69.61 69.65 70.04 68.57
75.20 73.73 73.50 73.23 72.08 71.14 69.12 69.77 69.43 69.79 70.06 70.07 69.42 61.64 60.84 63.37 68.10 69.10 69.08 66.16 65.46 65.11
74.26 73.51 72.58 72.27 71.91 70.95 69.80 69.01 69.38 69.54 69.68 69.97 70.15 59.83 59.26 62.41 67.85 67.30 64.73 64.55 64.71 64.76
74.55 73.72 72.75 71.57 71.99 71.31 70.31 68.48 68.69 69.10 70.75 66.41 70.34 57.41 57.01 62.43 67.34 65.75 64.21 63.60 63.67 60.12
74.52 73.20 72.48 71.93 71.54 70.55 69.84 69.07 69.21 69.44 69.48 69.89 69.28 68.39 55.52 56.69 65.77 64.54 65.10 63.16 61.86 63.13

GFSNIL_sfc_wetblb_027.txt.gz
Wetbulb
81.49 77.74 77.30 78.43 76.02 74.55 72.57 72.92 77.20 75.75 75.35 74.31 74.77 74.48 73.54 70.92 70.36 71.87 70.13 70.12 70.39 68.12
81.15 80.25 77.58 79.17 79.82 76.56 77.99 73.41 75.54 75.10 74.50 74.55 73.43 73.18 73.07 70.33 70.94 71.00 71.05 70.52 70.78 69.04
80.53 80.63 80.63 80.90 80.22 79.03 78.28 76.33 75.69 74.46 73.86 73.80 72.78 73.66 73.36 72.27 72.56 71.56 69.82 68.72 70.89 70.16
79.89 79.71 80.10 79.30 79.57 79.36 79.05 77.17 75.39 75.05 74.41 73.86 71.94 72.88 72.72 72.72 71.44 70.82 71.22 70.33 70.19 70.43
80.38 79.90 79.24 79.36 79.65 79.63 78.36 77.19 75.57 74.95 74.05 73.09 72.73 72.61 71.90 70.70 70.29 69.65 69.57 70.07 70.47 69.13
79.99 79.59 79.09 79.50 79.71 79.32 77.60 75.98 74.33 74.48 73.64 72.23 71.75 72.01 72.10 71.48 71.18 70.57 69.51 69.41 69.03 68.77
79.73 79.79 79.36 79.96 79.26 78.47 76.83 75.18 73.97 73.75 73.59 72.09 71.96 71.31 71.19 70.89 70.57 70.08 69.69 69.76 70.35 69.43
80.53 80.58 80.56 79.40 78.95 77.37 76.53 73.96 73.94 73.59 71.00 71.17 69.80 70.42 71.47 71.27 70.27 70.44 69.49 70.15 69.85 70.90
80.60 80.16 79.37 78.72 78.81 76.82 74.85 73.91 73.28 72.10 69.92 70.08 70.14 65.45 65.30 69.69 69.53 71.04 70.52 70.07 70.90 70.63
80.47 79.62 78.11 77.55 77.27 75.53 74.53 73.51 72.40 71.55 71.12 70.70 71.53 62.10 62.92 65.27 70.11 70.33 71.01 70.24 70.76 68.75
79.55 78.21 76.84 76.48 76.71 76.34 74.55 72.84 71.50 71.53 71.77 71.27 71.43 60.92 60.86 64.11 69.76 70.51 71.03 70.93 70.41 69.30
78.40 77.77 76.60 74.26 75.01 75.55 74.45 71.99 71.66 71.51 71.66 71.02 70.99 60.27 59.71 63.18 68.68 68.67 70.05 70.53 68.13 67.79
78.37 76.77 75.48 74.79 74.79 74.97 73.94 72.19 70.47 70.03 71.38 66.91 70.15 60.48 58.20 62.59 71.32 69.96 68.19 70.19 68.79 61.48
76.50 76.23 76.21 75.04 75.23 72.69 70.85 69.73 70.16 69.02 68.85 69.53 69.15 69.84 56.23 56.49 70.57 69.14 69.22 67.55 66.22 64.96

GFSNIL_sfc_wetblb_030.txt.gz
Wetbulb
78.19 78.33 77.96 77.82 76.84 74.72 75.24 73.84 75.21 75.99 76.44 75.53 74.50 74.40 73.17 71.45 70.41 70.92 70.45 69.72 70.27 68.62
78.99 78.13 77.38 78.32 77.47 77.83 76.40 77.18 75.19 75.21 75.62 74.91 74.08 73.17 73.39 71.36 70.58 71.29 71.68 70.67 70.84 69.96
79.19 79.23 78.33 77.95 77.80 76.23 78.55 76.51 75.54 74.79 74.80 74.13 74.04 73.60 73.59 71.34 72.64 71.48 71.34 70.47 70.18 69.88
78.90 79.40 78.48 77.85 77.43 77.60 77.47 76.79 74.84 74.23 73.85 73.73 73.42 73.23 72.35 71.75 71.49 70.64 70.41 69.64 69.54 68.47
79.34 79.12 78.55 77.24 78.36 78.63 76.92 76.78 74.68 74.37 73.79 73.17 72.75 72.64 71.98 70.40 69.76 70.31 69.87 69.78 70.07 69.39
78.71 78.39 78.16 78.15 77.03 78.12 77.67 76.88 74.92 74.23 73.31 72.91 72.19 72.07 71.68 71.07 70.38 70.23 68.11 70.04 69.43 69.09
78.22 78.31 78.04 78.22 78.01 78.03 78.32 76.87 74.65 73.80 73.31 72.76 72.01 72.01 71.40 71.36 70.77 69.99 69.67 70.01 69.69 69.47
78.83 78.62 78.69 78.20 78.26 78.12 78.11 77.01 75.39 73.73 73.08 72.21 70.92 71.59 70.97 71.18 70.33 69.54 69.28 69.47 69.81 69.71
78.02 78.67 78.57 78.50 78.24 77.82 77.50 76.40 74.93 72.99 71.97 71.31 70.16 66.10 66.10 70.04 69.91 69.77 69.10 68.54 69.94 70.28
78.10 78.42 78.48 78.53 78.06 77.37 76.76 75.70 73.64 72.45 71.51 70.11 70.30 63.62 63.68 66.56 69.83 69.18 68.84 69.39 69.49 69.42
78.44 78.47 78.59 78.13 77.52 77.25 76.43 74.29 72.30 71.71 70.87 70.16 71.15 61.43 61.72 64.61 67.62 68.01 69.74 68.70 69.86 69.24
78.88 78.47 78.11 77.15 76.86 76.28 75.41 72.94 71.68 71.19 70.67 70.52 70.97 60.70 59.55 62.40 66.48 66.09 67.32 68.74 69.96 69.56
79.36 78.53 77.43 77.03 76.46 76.94 76.06 72.97 71.06 69.96 70.45 67.76 69.92 59.13 57.90 61.27 66.27 65.33 66.94 69.37 68.99 62.75
79.01 78.41 78.17 76.48 75.71 74.95 74.24 73.59 71.49 69.83 69.47 70.54 68.82 68.72 56.61 56.37 67.22 68.36 68.10 67.38 67.85 68.73

GFSNIL_sfc_wetblb_033.txt.gz
Wetbulb
74.25 75.37 73.54 73.00 72.92 71.03 70.96 70.22 70.91 73.14 72.78 71.90 70.00 68.78 68.25 66.57 66.97 66.84 65.04 64.25 63.31 63.96
74.25 74.42 75.35 73.73 72.38 72.96 71.12 71.37 71.14 73.25 72.91 71.78 69.90 69.76 68.43 66.85 66.08 66.46 65.77 64.82 65.34 63.49
75.58 75.11 74.99 74.77 73.53 72.71 73.02 72.34 71.34 73.30 72.66 71.45 70.34 69.61 68.34 66.94 67.74 66.43 66.81 65.77 64.98 64.63
76.01 76.22 75.43 74.88 74.20 73.51 72.57 72.29 71.99 72.83 72.25 71.18 70.64 69.83 68.64 67.07 66.69 67.39 65.63 66.40 64.81 65.28
76.00 76.67 76.32 75.37 74.60 74.62 72.93 72.81 72.44 72.02 71.90 71.03 70.56 69.69 68.97 67.66 67.39 66.47 66.06 65.29 64.64 64.06
76.01 75.85 76.56 75.97 75.21 74.84 74.26 73.12 72.22 71.72 71.05 70.93 70.63 69.96 69.41 68.22 66.27 66.95 66.79 66.68 65.52 64.64
76.05 76.22 76.34 76.76 75.35 74.92 75.35 73.70 71.84 71.50 71.01 70.68 70.54 69.90 69.57 68.56 67.35 66.55 66.44 67.17 66.86 65.62
76.20 76.70 76.66 76.37 76.14 74.74 75.13 74.67 72.32 71.17 71.12 70.81 70.42 69.88 68.89 68.53 67.71 66.97 66.23 66.97 67.90 67.31
75.44 76.24 76.08 75.99 75.77 75.47 74.56 75.17 73.19 71.22 70.68 69.99 70.79 66.24 67.09 68.63 68.30 67.59 67.01 66.20 66.45 65.98
75.06 75.47 75.74 75.94 75.47 75.35 74.69 75.20 73.38 71.74 70.61 69.01 69.16 64.29 65.01 67.03 68.18 67.68 67.17 66.76 66.60 66.87
74.42 75.34 75.94 75.74 75.38 75.33 75.32 74.02 72.66 71.20 70.32 68.80 68.65 63.13 61.68 64.58 67.34 66.23 66.44 67.09 66.45 66.03
74.51 74.98 75.76 75.45 75.53 75.42 74.76 73.72 71.83 70.19 69.10 68.12 67.76 61.98 60.15 61.48 65.32 64.80 64.80 66.32 67.53 67.19
74.72 75.37 75.73 75.89 75.29 74.56 73.69 72.26 70.74 69.59 69.09 66.35 68.16 60.08 58.81 60.35 64.99 64.14 64.37 65.14 66.23 63.16
76.18 76.45 76.37 75.37 74.89 74.41 72.08 70.81 69.57 68.68 68.58 68.75 68.07 64.52 56.78 56.76 64.92 64.35 64.11 65.01 65.39 65.71

GFSNIL_sfc_wetblb_036.txt.gz
Wetbulb
72.89 72.40 70.95 70.05 70.54 71.09 70.58 70.57 71.95 71.11 71.29 68.70 67.57 66.21 65.73 64.32 64.02 64.17 63.46 63.40 61.96 62.03
72.68 73.60 73.38 71.58 71.35 69.91 69.55 69.43 71.37 71.09 71.08 69.48 68.53 67.08 66.14 64.90 64.57 65.23 64.08 63.16 62.11 62.48
72.00 73.16 73.88 73.27 71.80 71.43 70.13 70.29 69.85 70.94 70.93 69.96 68.73 67.68 66.83 65.21 64.72 64.82 64.53 64.52 63.58 62.50
72.34 72.14 73.08 73.93 73.62 72.21 71.79 70.73 69.59 71.52 71.20 70.42 69.01 68.25 66.67 65.49 65.92 64.58 64.53 65.07 63.99 63.24
73.27 73.27 72.31 72.56 73.82 73.58 71.98 71.51 70.71 70.64 71.69 70.74 69.85 68.52 67.59 65.76 66.35 65.78 64.35 64.23 63.98 63.48
73.77 73.88 73.47 73.16 73.11 74.13 73.14 71.38 70.95 70.79 71.15 70.66 70.26 68.86 68.25 67.20 65.87 65.43 65.87 65.05 63.98 63.81
73.81 74.50 74.49 74.38 73.77 73.58 73.86 72.02 71.01 70.88 70.99 70.72 70.35 69.66 68.57 67.83 66.43 65.98 65.81 65.74 65.38 65.30
74.23 74.86 74.99 75.13 75.05 74.25 73.53 73.41 71.88 70.74 70.13 70.09 69.90 69.93 68.81 68.34 67.04 66.06 65.14 65.49 66.42 66.95
74.83 74.83 74.68 75.10 75.42 74.47 73.98 73.68 71.81 70.76 69.99 69.08 70.26 66.72 66.41 68.51 67.89 66.89 65.95 65.10 65.07 66.78
74.71 74.73 74.78 74.90 75.10 74.68 73.70 74.00 71.66 70.16 70.00 69.69 69.93 64.37 64.96 66.90 68.27 67.08 66.70 65.43 64.71 65.62
74.54 74.38 74.88 75.05 74.79 74.80 74.19 73.39 72.17 70.37 70.20 69.85 70.00 63.09 62.77 65.45 68.76 67.10 66.20 65.96 65.35 66.01
74.48 74.03 74.58 74.48 74.63 74.74 74.69 73.60 73.22 71.41 70.59 69.90 69.99 60.95 60.91 63.33 67.62 64.71 64.65 65.46 66.18 66.65
74.15 74.04 74.26 74.63 74.67 74.93 74.91 73.76 72.71 71.49 71.23 68.01 69.35 60.12 58.27 60.75 64.46 64.88 65.21 63.52 65.80 62.67
73.41 73.73 74.75 75.03 75.25 74.99 74.39 72.40 71.70 70.48 69.94 68.47 66.77 63.74 57.48 56.97 64.61 64.87 64.35 64.28 64.18 65.03

GFSNIL_sfc_wetblb_039.txt.gz
Wetbulb
71.17 70.84 70.29 69.39 69.46 69.61 69.94 70.72 72.08 71.97 71.33 69.20 67.33 66.16 64.73 63.82 63.05 62.45 62.15 62.44 61.22 61.12
71.17 70.83 70.16 69.03 69.20 70.03 70.38 70.86 70.85 71.41 71.06 69.08 67.12 65.31 64.48 63.35 63.13 63.08 62.25 62.63 61.59 61.51
71.55 71.53 71.06 70.24 70.02 69.69 69.43 69.36 70.48 70.54 70.68 69.42 67.29 65.60 64.64 63.79 63.43 64.06 63.26 62.64 61.64 61.66
71.69 72.24 72.53 72.06 71.16 70.33 69.49 68.74 69.39 70.10 70.24 69.53 68.01 66.73 65.83 64.43 64.05 63.47 63.43 63.44 62.90 62.31
71.11 71.14 71.99 72.39 72.70 71.79 70.20 69.32 68.90 69.86 69.82 69.45 68.65 67.74 66.41 65.21 65.59 63.79 62.70 63.08 63.28 62.91
70.98 70.89 70.89 71.53 72.54 72.89 72.11 70.81 69.78 69.22 70.00 69.55 69.25 67.78 67.46 66.52 65.84 65.10 64.48 63.50 63.46 63.33
71.39 71.35 71.06 71.00 71.38 72.56 72.89 71.14 70.68 69.44 69.61 70.34 69.92 69.05 68.42 67.46 66.19 65.39 65.26 65.01 64.42 63.46
71.99 72.29 72.14 71.64 71.20 71.45 72.21 72.46 71.30 70.39 69.85 70.32 70.09 69.92 68.86 68.14 67.15 65.87 65.25 65.06 65.30 64.55
71.76 72.46 72.68 72.60 72.19 71.82 71.56 71.91 71.41 70.25 70.08 69.79 70.02 66.83 66.12 68.29 67.69 66.70 66.06 65.21 65.08 65.48
72.16 72.13 72.78 73.25 73.06 72.83 72.16 72.02 71.23 70.86 69.99 69.44 69.82 64.08 64.52 66.55 68.54 67.41 66.10 65.24 64.62 64.56
72.64 72.28 72.73 73.11 73.20 73.56 73.61 72.61 72.04 70.96 70.48 69.88 69.37 62.85 62.39 65.48 68.73 67.51 66.95 66.77 65.83 64.87
72.97 72.86 73.11 72.88 73.10 73.72 74.28 73.47 73.18 71.55 70.20 69.51 69.40 60.92 60.81 63.68 68.39 66.99 66.83 66.70 65.73 64.95
73.36 73.32 73.30 73.53 73.58 73.98 74.40 73.89 73.66 72.07 70.54 67.91 69.86 60.37 58.32 64.47 68.09 66.42 65.67 64.13 64.01 62.30
73.11 73.46 73.81 73.93 74.20 74.13 74.33 74.09 73.26 72.03 71.30 70.77 70.00 61.96 57.09 60.25 66.77 66.27 65.22 64.59 63.36 64.05

GFSNIL_sfc_wetblb_042.txt.gz
Wetbulb
71.30 70.74 70.83 70.46 70.46 70.38 70.90 71.97 73.06 72.83 72.76 71.49 70.86 70.25 67.84 65.90 65.02 66.09 65.43 64.40 64.70 64.34
71.55 71.38 70.66 70.87 70.40 70.65 71.51 72.01 72.51 73.01 72.80 71.51 70.62 69.42 67.79 66.12 65.29 65.38 65.32 65.39 65.06 64.76
71.48 71.65 71.48 71.23 69.74 70.29 70.74 71.79 71.85 72.34 72.57 71.41 70.49 68.59 67.41 66.44 66.05 65.70 64.83 64.89 64.82 64.55
71.48 71.75 71.62 71.18 70.50 70.42 70.67 70.86 71.02 71.79 71.84 71.47 70.07 68.66 67.20 66.65 65.96 65.72 65.68 65.83 64.77 64.75
71.60 71.67 71.20 71.08 71.15 71.26 70.47 70.46 70.65 71.34 71.59 71.36 70.35 69.15 67.98 66.56 66.47 65.71 65.37 65.57 65.24 64.90
71.25 71.40 71.25 71.35 72.07 71.75 71.23 70.42 70.09 70.83 70.89 70.74 70.57 69.58 68.78 68.14 67.28 66.57 66.26 65.97 65.30 65.21
70.76 71.08 71.57 72.06 72.44 72.47 72.10 71.01 70.20 70.18 70.73 70.87 70.74 70.39 69.61 68.64 67.92 67.57 67.19 66.57 65.93 65.53
70.88 71.05 71.33 71.40 72.04 72.54 72.93 72.31 71.28 70.39 70.26 70.53 70.63 70.42 69.85 69.33 68.55 67.74 67.59 67.43 66.78 66.47
71.02 71.20 71.01 70.96 71.08 71.40 72.24 72.83 72.30 71.53 70.74 70.05 70.41 66.86 65.92 68.85 68.97 68.36 67.97 66.80 66.69 67.44
70.86 70.95 71.18 71.43 71.17 70.50 70.53 71.80 72.20 71.94 71.57 70.75 70.76 64.35 64.49 66.63 69.92 68.86 68.36 67.84 66.33 66.37
70.93 70.86 71.47 71.69 71.43 71.18 71.25 70.73 71.01 71.52 71.81 71.53 71.36 63.26 62.58 65.64 70.38 69.15 68.78 67.78 66.71 67.29
71.33 70.96 71.32 71.42 71.83 72.21 72.06 71.71 71.39 71.81 71.69 70.94 71.02 61.35 60.86 63.70 69.81 68.59 67.90 67.63 67.65 67.04
71.92 71.84 71.42 71.76 72.18 72.93 73.16 72.93 73.03 72.29 72.16 68.93 71.26 59.95 58.94 63.52 69.16 68.10 67.80 67.90 66.95 63.06
72.48 72.51 72.54 72.68 72.98 73.05 73.22 73.59 73.44 73.03 73.06 71.70 70.50 68.26 57.20 59.88 69.04 68.55 67.76 66.42 65.56 66.11

GFSNIL_sfc_wetblb_045.txt.gz
Wetbulb
75.98 75.04 74.91 75.58 74.49 74.17 74.40 74.93 77.32 76.85 77.27 77.20 77.03 76.71 75.74 74.00 72.79 72.49 71.04 70.87 70.71 69.80
75.50 75.46 75.00 76.32 76.57 74.81 76.63 75.44 76.18 76.63 76.71 77.15 77.02 76.62 75.66 73.92 72.73 71.45 71.31 71.19 70.75 69.83
74.99 75.70 76.00 76.25 76.17 76.17 77.00 76.58 76.10 76.60 77.13 77.13 76.76 76.38 75.54 74.47 73.83 71.68 70.63 70.45 70.48 70.09
75.00 75.46 75.91 75.74 76.11 76.27 76.91 77.06 76.86 76.79 76.78 76.52 76.17 76.17 75.13 74.62 73.65 71.76 71.69 70.80 70.38 70.03
75.44 75.58 75.43 75.61 75.93 76.48 76.21 76.93 76.92 76.96 76.53 76.33 76.13 75.94 74.92 73.93 73.27 72.08 71.20 70.88 70.27 69.54
74.77 74.80 74.90 75.31 76.03 76.29 76.24 76.47 76.31 76.53 76.33 75.83 75.81 75.46 75.17 74.58 73.60 72.47 72.05 71.51 70.77 70.13
73.90 74.57 74.83 75.37 75.77 76.13 76.18 75.94 76.17 76.24 76.43 76.60 76.29 75.59 75.01 74.42 73.97 73.06 72.55 72.11 71.74 71.11
74.72 75.33 75.50 75.48 75.79 76.01 76.19 75.83 76.16 75.70 75.80 76.28 75.97 74.97 75.22 74.56 74.05 73.39 72.58 72.41 72.01 71.89
74.65 75.11 75.03 75.38 75.62 75.82 75.97 76.00 76.12 75.50 75.37 75.30 74.73 68.58 67.77 73.16 74.12 73.60 73.48 72.94 72.49 72.41
74.70 74.57 74.88 75.33 75.57 75.24 75.46 76.41 75.81 75.79 75.37 75.02 75.44 64.86 65.19 67.46 75.11 74.53 74.14 74.22 73.84 71.96
74.72 74.19 74.84 74.97 74.70 75.01 75.30 75.34 75.84 75.75 75.92 75.34 75.08 63.72 63.05 66.07 73.81 74.96 75.13 74.54 73.90 72.75
74.27 74.45 74.82 74.48 74.26 74.80 74.79 74.73 74.96 76.00 76.14 75.58 75.53 62.37 61.34 65.08 72.77 74.12 74.71 74.05 73.72 72.81
74.68 74.62 74.49 74.76 74.73 75.58 75.29 74.83 74.32 75.09 76.00 72.41 75.98 62.56 59.82 64.55 72.93 73.15 73.25 73.28 73.46 64.45
75.43 75.19 74.94 75.60 75.90 75.98 75.49 75.41 75.55 75.14 75.53 75.96 74.30 74.13 58.02 59.13 73.01 73.03 71.92 71.15 70.23 69.60

GFSNIL_sfc_wetblb_048.txt.gz
Wetbulb
79.59 76.29 76.15 77.85 76.29 76.05 75.77 75.83 78.03 77.78 78.37 78.92 78.79 79.07 79.03 77.74 76.66 76.46 75.45 74.27 73.51 69.69
78.87 78.70 77.08 79.16 79.74 77.03 79.23 76.71 77.53 77.60 78.08 78.43 78.73 79.07 79.00 77.46 76.92 76.23 75.77 74.82 74.18 71.78
78.53 78.92 79.19 79.49 79.16 79.59 79.80 79.32 78.01 77.63 77.66 78.14 78.56 78.95 79.07 77.98 77.79 76.50 75.07 74.26 74.00 73.38
78.40 78.08 78.54 78.35 79.45 79.86 80.16 80.57 79.06 79.23 77.75 77.42 78.27 78.97 78.68 78.45 77.85 76.49 75.66 74.83 73.87 73.67
78.89 78.88 78.24 78.49 79.28 80.05 79.86 80.68 80.63 79.52 78.94 78.09 77.96 79.16 78.34 77.64 77.06 76.32 75.32 74.58 74.03 73.18
78.19 78.51 78.67 79.15 79.26 79.55 79.78 80.12 79.69 80.04 79.84 79.10 78.57 78.65 78.32 78.07 77.41 76.66 76.02 75.26 74.41 73.33
78.13 78.33 78.61 79.05 79.15 79.19 79.83 79.77 79.98 80.18 80.29 79.81 79.36 78.89 78.22 77.68 77.47 77.38 76.41 76.10 75.25 74.33
78.22 79.08 79.26 79.16 79.48 79.67 79.86 79.74 80.01 79.79 80.11 79.90 79.27 77.51 78.65 78.78 78.15 78.08 76.76 76.54 75.67 74.90
78.31 78.99 78.84 79.01 79.23 79.63 79.60 79.80 79.72 79.51 79.61 79.13 77.99 70.52 67.93 75.58 78.16 78.17 77.58 76.91 76.77 76.56
78.39 78.44 78.84 78.71 78.90 79.06 78.98 79.09 79.24 79.24 79.23 78.90 79.29 66.77 65.79 68.55 78.06 77.93 77.99 78.17 77.75 75.26
78.31 78.24 78.67 78.82 78.56 78.99 78.98 78.67 79.04 79.12 79.18 79.18 78.97 66.20 63.57 66.55 76.48 77.74 78.61 78.70 78.45 77.89
78.07 78.07 78.42 78.13 78.18 78.95 78.12 78.03 77.81 78.26 79.18 79.20 78.70 63.33 61.36 65.67 75.54 75.94 77.84 78.84 78.92 78.37
78.48 78.28 78.06 78.31 78.30 78.70 78.39 76.88 76.86 76.87 78.38 73.94 78.45 67.03 59.60 63.76 73.88 73.94 73.77 76.30 76.85 67.36
78.96 78.89 79.03 79.29 78.87 78.45 77.64 77.68 77.44 76.88 78.35 77.86 76.87 76.83 59.84 57.79 70.78 72.04 72.34 74.01 74.56 76.08

GFSNIL_sfc_wetblb_051.txt.gz
Wetbulb
79.87 76.90 76.35 77.32 76.57 75.94 75.51 76.09 81.03 80.95 79.81 79.90 80.37 79.73 81.07 78.35 77.54 78.75 76.37 76.03 75.63 70.76
79.92 79.31 77.52 77.84 79.30 76.72 79.76 76.67 78.62 79.20 79.51 79.87 80.03 80.77 81.06 77.49 78.93 78.52 77.50 77.67 76.73 73.23
80.34 80.10 79.67 79.49 79.48 79.13 79.12 80.65 80.23 79.59 79.11 79.41 80.38 80.59 81.20 78.98 79.59 79.30 77.01 75.30 77.60 76.59
79.96 80.24 80.49 79.51 80.04 80.12 81.53 81.61 80.44 81.17 79.87 79.59 79.66 80.45 80.80 80.26 79.83 79.17 78.58 77.89 77.83 76.43
80.35 80.41 79.97 80.01 79.95 81.14 80.45 81.67 81.84 80.68 80.96 79.64 79.55 80.21 80.37 79.13 77.80 78.78 78.05 77.21 77.01 76.05
79.76 79.91 79.72 80.00 80.66 80.75 81.25 81.15 80.83 81.25 80.71 80.13 79.57 79.57 80.66 80.33 79.67 79.09 78.85 78.19 77.12 75.83
79.48 79.78 79.79 80.17 80.75 80.80 81.36 81.01 80.79 81.04 81.01 80.93 80.44 79.70 79.76 80.32 79.97 79.62 78.71 78.93 78.20 76.95
79.67 80.64 80.51 80.38 80.29 81.02 81.03 81.02 81.38 81.05 81.02 81.13 80.64 79.35 79.41 79.26 79.88 79.79 79.20 79.12 78.78 77.88
79.87 80.29 80.44 80.46 80.51 80.72 80.81 80.76 80.96 80.85 80.73 80.46 79.75 71.57 68.74 76.04 78.71 79.81 79.31 78.46 79.15 78.77
79.93 79.87 80.43 80.59 80.62 80.38 80.41 80.79 80.30 80.55 80.62 80.45 80.74 67.76 66.04 68.92 78.75 79.04 79.41 78.89 79.05 78.34
79.56 79.71 80.32 80.57 80.38 80.66 80.62 80.38 80.27 80.18 80.66 80.57 80.61 66.86 63.58 66.38 77.42 78.10 78.77 78.51 77.87 78.35
79.57 79.57 80.03 79.82 80.07 80.44 80.21 80.29 80.21 80.65 80.75 80.34 80.52 64.64 62.70 66.05 76.60 76.53 77.26 78.00 78.13 76.93
80.11 79.92 79.48 79.89 80.43 80.63 80.80 80.08 78.99 79.60 80.50 76.27 80.35 65.10 60.99 65.59 76.15 75.73 75.92 76.51 77.24 68.04
79.97 80.06 80.37 80.83 80.80 80.72 80.18 78.99 79.39 79.30 80.10 80.32 78.82 76.56 60.59 60.20 74.38 74.75 75.26 75.46 75.35 76.49

GFSNIL_sfc_wetblb_054.txt.gz
Wetbulb
77.00 77.22 74.40 75.03 75.25 74.43 76.02 75.79 78.65 77.63 77.87 78.77 78.98 78.33 79.59 78.98 77.78 77.82 77.01 77.25 74.94 73.48
76.84 76.20 76.83 75.24 76.38 77.34 76.95 76.42 81.67 78.37 78.05 78.67 79.19 78.95 78.34 77.84 77.76 78.07 77.01 76.37 76.60 74.77
78.27 76.70 76.24 77.71 75.39 75.53 77.56 80.76 81.46 78.63 78.48 78.26 78.21 78.84 78.35 77.96 78.31 77.26 76.89 75.65 75.59 75.32
77.90 78.28 77.32 76.11 77.11 76.58 77.58 77.80 78.70 80.34 78.33 77.89 77.88 78.03 78.36 77.94 77.53 77.23 76.86 76.20 76.04 74.72
78.24 78.55 78.12 77.05 77.19 77.73 77.83 79.65 78.42 79.12 79.15 77.75 77.39 77.75 77.93 77.17 76.50 77.48 76.70 76.04 75.83 75.49
77.83 78.19 78.20 78.26 77.52 78.09 78.14 77.94 79.41 79.35 78.03 77.63 77.26 77.09 77.66 77.89 77.81 77.00 77.45 77.06 75.90 74.47
77.84 78.08 78.48 78.59 78.57 78.16 78.09 78.69 78.05 78.86 78.88 78.16 77.82 77.44 77.36 77.79 77.70 77.66 77.08 77.56 77.03 75.74
78.01 78.65 78.65 78.58 78.58 78.81 78.69 78.29 79.16 78.79 78.60 78.81 78.40 78.05 77.20 77.33 77.81 77.61 77.29 77.01 77.54 76.65
77.93 78.20 78.39 78.47 78.47 78.58 78.80 78.73 78.73 78.68 78.73 78.30 78.71 72.11 70.02 75.29 76.83 77.66 77.28 76.75 76.50 76.88
77.82 77.73 78.05 78.67 78.63 78.43 78.20 78.63 78.36 78.68 78.68 78.39 78.71 68.72 67.28 69.33 77.08 76.58 77.00 76.91 76.62 76.14
78.15 77.78 78.42 78.51 78.59 78.54 78.57 78.31 78.34 78.39 78.81 78.59 78.67 68.57 65.47 66.87 75.55 76.54 76.61 76.42 76.80 76.61
77.93 78.20 78.17 78.01 78.41 78.85 78.57 78.57 78.37 78.95 78.65 78.51 78.44 66.25 64.72 65.64 73.87 74.94 75.37 76.68 76.83 76.91
78.07 78.01 78.04 78.22 78.58 79.17 79.15 78.63 79.12 78.56 78.88 75.28 78.54 67.92 62.59 65.62 76.30 74.54 74.50 75.46 75.93 67.97
77.84 78.08 78.60 78.94 79.19 79.21 78.95 78.67 78.45 78.36 78.82 79.05 77.79 77.63 60.60 59.84 76.52 75.94 75.19 74.83 74.55 75.55

GFSNIL_sfc_wetblb_057.txt.gz
Wetbulb
72.60 72.73 71.31 71.36 70.61 69.73 71.65 73.41 74.58 75.32 75.82 75.20 74.77 74.70 74.73 73.72 74.34 73.33 72.03 72.70 70.29 67.07
71.86 73.13 72.29 70.42 71.48 72.45 70.87 73.50 74.40 74.95 74.62 75.65 75.05 74.40 73.63 75.13 74.09 74.09 73.17 71.97 72.17 69.84
74.16 72.61 73.65 72.65 70.66 71.15 71.87 73.28 73.37 74.69 74.70 75.70 75.90 75.62 74.19 74.14 75.02 73.49 73.70 72.80 72.07 71.43
75.07 74.60 73.11 73.65 73.11 71.81 71.33 72.69 75.80 75.67 75.25 75.21 75.18 75.29 74.84 73.14 73.94 74.16 73.77 72.76 72.24 71.48
74.78 75.75 74.35 72.77 72.89 73.05 72.43 73.14 73.40 76.15 76.00 75.59 75.34 74.72 74.64 74.47 74.84 74.01 73.78 73.43 71.77 72.25
74.75 74.93 75.48 74.84 73.72 73.58 73.72 73.99 74.69 73.78 75.69 75.51 75.25 75.02 74.67 75.03 74.87 73.75 74.13 74.44 73.66 72.04
75.18 75.20 75.53 76.07 75.55 74.00 74.69 74.40 75.42 75.78 74.65 75.57 75.40 75.10 75.29 75.39 74.95 74.82 74.22 75.02 74.95 73.83
75.36 75.79 75.84 75.71 76.08 75.97 74.45 75.52 74.93 74.97 76.02 75.77 75.78 75.69 74.85 74.86 75.13 75.17 75.20 74.95 75.10 75.24
75.65 75.76 75.79 75.98 76.00 76.23 75.87 74.81 75.23 75.64 74.84 75.89 76.43 70.96 69.42 73.63 75.00 75.13 75.18 74.90 75.08 75.36
75.17 75.32 75.70 76.17 76.17 76.01 76.01 76.40 75.62 75.31 76.08 75.80 76.25 68.38 67.38 69.30 75.10 74.70 75.19 75.22 75.28 75.04
74.58 75.25 75.46 75.68 75.66 75.82 76.13 76.02 75.99 75.90 75.96 76.35 76.50 68.11 65.63 67.37 74.71 75.11 74.77 75.31 75.73 75.38
74.80 74.99 75.25 75.13 75.54 76.05 75.96 76.05 75.88 76.29 76.05 76.10 76.58 65.72 64.72 65.52 73.55 74.69 74.82 75.12 75.07 75.38
75.16 75.33 75.03 75.73 75.68 76.60 76.55 76.10 76.49 76.12 76.58 73.51 76.40 66.88 62.64 64.99 74.72 73.51 73.62 74.58 74.69 67.57
75.52 75.46 76.10 75.91 76.51 76.55 76.61 76.54 76.21 76.12 76.49 76.78 75.54 75.60 61.77 60.51 74.86 75.52 74.81 74.13 73.80 74.01

GFSNIL_sfc_wetblb_060.txt.gz
Wetbulb
70.34 70.49 69.68 68.10 67.96 67.52 70.94 72.72 73.08 73.98 74.61 73.85 73.70 72.94 72.54 71.81 71.96 71.60 70.38 69.89 68.30 65.58
71.72 70.83 70.22 68.98 68.23 68.88 69.74 72.82 73.09 73.79 74.43 74.23 73.90 73.00 73.29 72.05 72.11 72.70 71.45 69.87 70.84 68.53
70.74 72.15 72.87 70.20 68.61 70.35 70.25 70.92 72.42 73.01 73.58 74.43 74.15 73.43 72.49 72.80 73.06 72.93 72.32 71.79 70.17 69.91
71.47 70.75 71.55 72.29 70.18 69.86 69.62 70.97 71.15 72.88 73.29 73.14 74.28 73.58 72.60 72.12 73.45 72.57 72.52 72.46 71.16 70.35
72.26 72.23 70.82 70.68 72.74 71.40 69.84 69.79 71.15 74.10 73.42 73.29 73.68 74.51 73.82 72.48 73.14 73.62 72.39 72.89 72.14 71.74
72.51 73.16 72.94 71.73 71.44 72.64 71.75 70.75 70.84 73.55 74.46 73.89 73.83 73.57 74.52 74.15 73.38 72.82 73.43 73.33 72.78 72.16
72.08 73.43 74.38 73.93 72.71 71.66 72.74 72.03 71.33 71.89 73.96 74.80 74.41 74.31 73.87 73.84 74.10 73.67 73.51 73.40 73.57 73.17
73.00 72.89 73.77 74.66 74.28 73.46 72.02 72.61 72.83 72.35 72.61 74.33 74.75 74.89 74.03 73.82 73.39 73.31 73.65 73.79 73.65 74.02
72.78 73.88 73.45 73.88 74.48 74.76 73.66 72.76 72.90 72.68 73.05 73.51 74.62 70.16 68.77 72.91 73.81 73.58 72.94 72.69 73.36 73.61
73.02 73.29 74.13 74.45 74.43 74.41 74.48 73.86 72.91 73.51 73.22 72.84 74.60 67.26 66.84 68.70 73.87 73.42 73.50 73.41 73.53 73.68
73.14 73.49 74.09 74.33 74.21 74.48 74.82 74.60 74.26 73.13 73.78 74.43 74.07 66.33 64.91 66.87 73.23 74.09 73.74 73.96 74.03 73.79
73.43 73.69 74.05 74.13 74.48 74.83 74.87 74.82 75.05 75.25 74.61 73.75 74.26 65.00 63.45 64.97 72.37 73.51 73.97 74.39 74.36 74.21
72.42 73.73 73.92 74.40 74.45 75.35 75.36 75.12 75.53 75.11 75.58 72.25 75.05 65.67 62.10 64.85 73.96 73.46 73.73 74.38 74.92 67.41
72.48 72.67 74.11 74.60 74.86 74.69 75.08 75.02 74.76 74.92 75.27 75.36 74.28 74.36 60.67 60.33 74.33 74.78 74.41 74.10 73.93 74.47

GFSNIL_sfc_wetblb_063.txt.gz
Wetbulb
69.46 69.00 68.80 67.99 66.85 66.95 67.56 69.85 71.01 72.50 73.23 72.29 72.40 71.98 71.58 70.64 70.47 70.16 69.33 68.99 67.54 64.60
70.22 69.71 69.24 67.90 68.13 67.60 67.54 70.56 71.22 71.94 72.90 73.06 72.85 72.39 71.91 71.25 70.46 70.81 70.12 69.08 69.00 67.56
70.41 70.00 70.23 68.84 67.55 66.92 67.62 69.25 71.10 71.61 72.32 73.09 73.16 72.90 72.24 71.68 71.07 71.05 71.05 70.81 68.89 68.73
70.36 70.69 70.38 69.46 69.29 69.34 68.67 68.38 69.45 71.38 71.79 72.25 73.23 72.98 72.10 71.77 72.40 71.44 71.25 71.47 70.40 69.56
70.16 70.34 71.04 71.54 69.54 69.44 69.13 69.83 69.99 70.12 71.54 71.96 72.68 73.29 72.56 71.81 72.34 72.26 71.64 71.83 71.19 70.93
70.07 69.75 69.27 69.86 71.82 71.02 69.54 69.24 68.49 71.20 71.87 71.84 72.09 72.61 73.24 72.72 72.20 71.91 72.26 72.31 71.84 72.10
70.19 70.59 70.88 70.29 69.68 70.91 72.00 70.93 69.46 69.40 71.01 72.76 72.87 72.94 73.02 73.42 72.68 72.11 72.28 72.62 72.83 72.66
70.15 71.06 71.45 71.55 71.40 70.54 70.78 71.92 71.60 70.96 70.32 72.26 73.28 73.63 73.07 73.04 73.11 72.95 72.53 72.63 72.62 72.75
70.29 70.73 71.40 72.33 72.41 71.91 70.89 70.61 71.42 71.16 71.08 70.71 72.62 68.83 68.32 72.11 72.69 72.38 72.39 72.27 72.74 72.97
70.92 70.71 70.86 72.16 73.12 73.14 72.27 71.54 70.47 71.00 71.30 71.08 71.77 66.22 66.08 68.31 73.34 72.62 72.14 71.94 72.17 72.04
71.02 71.30 72.04 71.72 71.91 72.64 73.53 72.99 72.23 71.49 71.61 71.52 71.92 65.49 64.55 66.40 72.06 72.87 72.95 72.86 72.86 72.54
71.29 71.25 71.50 72.31 72.50 72.91 72.98 73.49 73.73 73.14 72.34 72.26 72.73 63.28 62.88 64.94 71.66 72.53 72.78 73.25 73.23 73.08
71.11 71.46 71.77 72.17 72.96 73.50 73.78 73.48 74.00 74.04 74.19 70.52 72.81 64.40 61.47 63.57 71.96 71.89 72.49 73.26 73.68 67.00
71.64 71.94 72.62 73.08 73.57 73.65 73.68 74.00 73.85 73.87 74.50 74.52 73.04 72.92 60.27 59.85 72.57 73.08 73.01 72.97 73.33 73.92

GFSNIL_sfc_wetblb_066.txt.gz
Wetbulb
69.37 68.64 69.19 68.92 68.61 68.61 68.04 69.31 71.30 72.45 74.15 74.02 73.93 73.53 73.50 72.55 72.03 72.38 71.97 72.23 70.78 69.04
69.86 69.22 68.96 69.20 69.33 69.07 69.08 69.88 71.00 72.23 73.10 74.17 73.85 73.81 73.50 72.66 72.51 72.70 72.33 71.85 71.76 70.52
70.00 70.07 69.86 69.28 68.95 69.11 68.90 69.89 71.43 72.03 72.49 73.50 73.95 74.05 73.67 73.34 73.37 72.66 72.59 72.22 71.76 71.51
70.21 70.35 70.47 69.52 69.32 69.18 69.38 69.27 69.98 71.82 72.47 72.78 73.64 74.01 73.54 73.74 73.70 72.78 72.93 73.05 72.48 72.23
70.45 70.74 70.05 69.99 69.95 69.96 69.00 69.29 69.97 70.72 71.99 72.58 73.41 74.08 73.49 73.25 73.78 73.16 72.96 72.68 72.84 72.70
70.08 70.12 70.04 70.27 70.23 70.07 70.29 70.27 70.46 70.18 70.41 71.36 72.50 73.35 74.03 73.86 73.67 73.34 73.45 73.77 73.28 73.37
69.89 70.17 70.35 71.01 71.53 70.56 70.25 69.87 69.79 70.79 71.58 71.83 72.55 73.10 73.37 73.98 73.62 73.38 73.31 73.66 73.70 73.58
70.06 70.38 70.34 70.20 70.52 72.01 71.99 71.00 70.72 70.24 70.33 71.09 72.10 72.80 73.22 73.82 73.98 73.66 73.33 73.57 73.68 74.21
70.06 70.54 70.46 70.57 70.34 70.06 70.55 71.85 72.07 71.44 71.19 70.64 71.17 67.90 67.05 71.46 73.31 74.01 73.92 73.49 73.75 74.24
69.47 69.86 70.49 71.14 71.21 70.99 70.28 70.52 70.86 71.54 71.57 71.23 71.29 65.02 65.28 67.36 73.21 73.21 73.40 73.69 73.90 73.69
69.75 69.69 70.39 71.09 71.51 71.91 72.01 71.18 70.54 70.87 71.50 71.56 71.88 64.26 63.82 65.66 72.11 73.29 73.36 73.48 73.34 73.29
70.32 70.42 70.62 70.57 71.14 72.39 73.14 72.77 72.32 72.15 71.53 71.36 71.87 63.00 62.51 64.47 70.97 71.70 72.75 73.56 74.06 73.98
71.21 71.17 71.29 71.54 71.41 72.21 72.85 73.19 73.98 73.71 73.66 69.94 72.55 64.05 60.76 63.55 72.07 71.74 72.00 73.21 73.82 66.17
71.43 71.35 71.72 72.12 72.87 73.04 73.02 73.15 73.31 73.74 74.33 74.58 72.46 72.67 60.20 58.88 71.55 72.39 72.51 72.69 73.31 74.38

GFSNIL_sfc_wetblb_069.txt.gz
Wetbulb
75.20 73.23 73.28 74.34 73.41 72.98 72.65 73.23 75.86 76.48 76.95 77.40 77.79 77.96 77.99 76.95 76.46 77.12 76.26 76.29 75.95 74.75
74.75 74.55 73.93 75.48 75.02 73.68 75.13 73.43 74.83 75.68 76.00 76.67 77.26 77.93 78.16 76.80 77.08 76.88 76.91 76.47 76.86 76.09
74.47 74.73 74.98 74.74 74.67 75.42 75.14 74.81 74.53 75.19 75.51 76.13 76.62 77.15 77.68 76.92 77.62 77.26 76.64 76.31 76.28 76.37
74.39 74.17 74.60 74.15 74.50 75.42 75.33 75.27 75.03 75.56 75.78 75.86 76.14 76.67 76.90 76.87 76.98 76.69 77.10 77.52 76.82 76.70
74.63 74.93 73.82 74.44 74.12 74.68 74.70 75.21 75.19 75.33 75.20 75.50 75.83 76.40 76.34 75.83 76.19 76.38 76.38 76.80 77.12 76.74
74.25 73.97 74.57 74.89 75.18 74.89 74.92 75.29 74.87 75.00 74.99 75.65 75.50 75.89 76.37 76.53 76.31 76.79 76.90 77.18 77.03 76.92
74.11 74.47 74.53 75.23 75.45 74.84 75.41 75.19 74.90 75.38 75.54 75.28 75.19 75.26 75.15 75.59 76.09 76.51 76.74 77.09 77.29 77.04
74.52 75.03 75.32 75.34 75.27 74.86 75.02 75.24 75.92 75.38 75.13 75.26 75.06 74.32 75.45 75.35 75.58 76.20 76.42 77.06 77.18 77.40
74.73 74.84 74.85 75.23 75.31 75.21 75.00 74.66 75.27 75.03 74.68 74.50 74.09 68.07 67.04 72.74 75.00 75.66 76.00 75.64 76.73 77.40
74.70 74.46 74.62 75.08 75.06 75.28 75.40 75.30 75.12 74.90 74.86 74.82 75.49 66.03 65.20 67.14 74.53 75.59 76.34 76.91 76.73 75.48
74.37 74.22 74.88 74.69 74.53 74.79 74.17 74.67 75.13 75.04 75.51 75.27 75.50 65.23 63.84 65.52 73.81 75.68 76.66 76.92 76.92 76.97
73.78 73.96 74.43 74.41 74.63 74.98 74.60 74.63 74.48 74.76 75.33 75.70 75.69 63.43 62.54 65.19 73.10 73.38 75.65 76.44 77.22 77.22
74.35 74.17 74.11 74.50 74.89 75.56 75.77 75.10 74.74 74.50 75.01 71.50 75.45 65.46 60.89 64.37 73.44 74.33 73.77 76.32 77.10 67.30
74.74 74.77 75.26 75.32 75.82 75.70 75.40 75.91 75.65 76.01 76.48 76.07 74.74 74.79 60.42 58.79 73.94 74.01 74.34 74.57 75.15 76.00

GFSNIL_sfc_wetblb_072.txt.gz
Wetbulb
77.84 75.02 75.37 76.16 75.15 74.83 74.32 74.42 76.62 77.57 78.03 78.49 78.32 78.64 79.04 78.22 76.96 78.20 76.76 77.35 77.36 74.66
77.64 77.10 75.80 78.68 77.27 75.77 77.06 75.67 76.34 76.70 77.27 77.52 78.00 78.45 78.99 77.30 77.85 78.20 78.22 78.18 78.02 77.31
76.46 76.94 77.41 76.89 76.93 77.46 76.91 77.04 76.72 76.43 76.18 76.65 77.56 78.13 78.84 77.71 78.33 78.49 77.74 77.20 77.64 78.03
76.21 76.35 76.51 75.85 76.44 77.06 77.48 77.51 77.57 76.96 76.58 76.08 76.76 77.87 78.16 78.11 77.56 77.63 78.46 78.69 78.43 78.45
77.19 77.69 75.78 76.17 76.61 77.24 77.20 77.94 77.75 77.78 77.34 76.86 76.65 77.75 77.91 77.55 76.79 77.35 77.53 78.15 78.65 78.34
76.20 76.31 76.94 77.02 77.14 77.11 77.39 77.47 77.65 77.69 77.17 76.99 76.26 76.47 77.31 77.51 77.30 77.18 77.66 78.44 78.47 78.62
76.98 77.47 76.76 77.93 78.29 77.22 78.12 77.42 77.47 77.87 77.58 77.28 76.96 76.22 76.08 76.40 77.17 77.27 77.34 78.22 78.68 78.93
78.08 78.16 78.74 78.67 78.40 78.05 77.57 77.36 77.82 77.57 77.46 77.40 77.00 75.77 76.48 75.87 75.65 76.48 76.95 77.59 77.99 78.44
78.18 78.49 78.32 78.60 78.51 78.29 77.74 77.81 77.74 77.31 77.33 76.90 76.12 68.58 67.12 72.75 75.30 75.73 76.63 76.28 77.50 78.04
78.28 78.23 78.54 78.09 78.34 78.46 78.04 77.87 77.76 77.21 77.36 77.23 77.77 66.21 65.11 67.41 75.27 75.53 76.96 78.04 77.76 76.14
78.12 77.89 78.06 78.37 78.29 78.89 78.08 78.43 78.40 77.27 77.93 77.46 77.69 65.80 63.97 65.63 75.29 76.80 77.56 78.12 78.68 78.84
78.00 77.92 77.73 77.53 77.89 77.76 77.73 77.72 77.61 77.74 78.37 78.29 78.27 63.82 63.07 66.63 75.00 74.77 76.81 77.33 78.49 79.06
78.05 78.28 77.84 78.26 78.30 78.32 77.30 76.53 76.46 76.65 77.85 73.53 78.54 66.29 60.83 66.30 75.07 75.58 74.57 77.93 79.24 68.25
77.66 78.46 78.68 78.82 78.63 78.74 77.78 77.94 78.20 77.92 78.37 78.37 76.58 76.94 59.73 58.84 75.55 74.58 74.62 74.63 75.05 76.33

GFSNIL_sfc_wetblb_075.txt.gz
Wetbulb
78.45 74.85 74.32 77.62 75.27 73.98 73.98 74.81 80.91 78.76 78.22 78.27 78.92 77.93 79.39 77.51 76.98 79.22 76.90 77.35 78.32 75.56
77.47 76.95 75.39 78.58 79.18 76.38 78.81 75.46 76.53 76.90 78.24 78.33 78.33 79.17 80.92 77.05 77.56 77.88 78.04 78.07 78.57 76.78
77.32 77.85 78.39 79.45 79.69 78.91 79.24 78.98 77.39 77.12 76.91 77.60 78.66 78.98 80.80 78.82 79.89 78.69 76.97 77.19 79.99 79.62
77.41 77.21 78.02 77.70 78.91 79.09 79.87 80.23 79.48 78.59 77.51 77.19 77.38 78.69 80.27 80.12 79.27 79.23 79.67 78.85 78.81 78.91
78.19 78.05 77.73 77.75 77.99 79.30 79.26 80.30 80.20 79.68 78.99 78.05 77.47 79.28 78.98 77.17 77.49 77.25 77.31 77.82 79.57 78.42
77.87 78.11 77.85 78.33 78.57 78.79 79.51 79.92 79.42 79.74 79.69 79.04 77.99 78.31 78.94 79.25 78.20 77.09 77.59 78.40 79.20 78.98
77.93 78.29 78.18 78.86 79.01 79.23 79.95 79.79 79.70 80.35 80.32 79.77 79.03 78.28 77.51 78.05 78.94 78.99 77.76 78.64 79.10 79.10
78.57 79.05 79.05 78.68 79.25 79.68 79.89 79.80 80.41 80.25 80.09 79.67 78.66 77.16 78.05 77.95 78.31 79.04 78.57 78.53 78.72 79.18
78.65 79.05 78.85 78.85 79.14 79.56 79.72 79.90 80.09 79.92 79.92 79.23 77.15 69.77 67.87 74.90 77.04 77.89 78.21 77.99 79.27 79.90
78.87 78.71 78.98 79.11 79.58 79.52 79.69 79.91 79.72 79.82 79.91 79.73 80.04 66.36 65.55 67.90 77.13 77.52 77.85 78.44 78.71 77.91
78.82 78.83 79.34 79.71 79.49 79.83 79.90 79.50 79.64 79.89 80.05 79.97 79.55 66.21 63.84 65.95 76.69 76.83 77.67 78.62 79.34 79.23
78.79 78.91 79.34 79.10 79.58 79.83 79.94 79.94 79.83 80.43 80.17 80.17 80.04 64.51 62.76 66.68 76.02 76.02 77.52 78.65 79.05 78.92
79.30 79.37 79.37 79.75 79.81 80.08 80.21 79.69 78.29 79.05 80.34 75.89 80.54 66.78 61.59 66.29 75.70 76.00 75.27 77.86 78.85 68.95
80.06 80.00 80.40 80.65 80.62 80.59 79.80 78.63 79.57 79.65 80.45 80.75 78.91 79.09 60.77 59.47 77.04 75.51 75.14 74.93 74.95 76.18

GFSNIL_sfc_wetblb_078.txt.gz
Wetbulb
76.96 74.63 75.31 77.58 74.56 76.42 74.52 75.24 77.28 77.90 78.96 79.49 79.20 78.97 78.90 78.39 78.23 78.68 77.93 78.10 78.63 77.03
76.31 76.69 74.20 77.92 79.24 75.27 77.52 77.49 77.67 78.09 78.82 78.85 79.03 78.74 79.19 77.34 77.66 78.75 78.45 78.29 78.45 77.88
73.57 75.56 76.07 74.20 78.18 77.64 79.72 79.75 78.07 78.12 77.98 78.40 79.40 79.43 79.12 77.45 78.50 78.18 77.21 77.60 77.94 78.36
73.98 74.31 74.34 75.66 76.19 77.09 77.62 79.72 79.53 79.47 78.57 78.17 77.94 79.14 78.91 78.07 77.91 77.16 77.55 77.42 78.19 77.07
74.64 74.31 73.95 73.10 77.05 77.48 78.63 80.37 81.05 78.89 79.51 77.89 77.56 77.94 78.05 77.20 75.72 77.29 77.03 77.74 77.66 77.98
74.98 74.87 74.23 73.51 75.34 77.45 76.47 77.55 78.32 79.19 77.77 78.20 77.19 76.99 77.79 77.77 76.83 76.87 77.04 77.39 78.03 77.65
74.89 75.36 75.28 75.78 74.67 75.42 77.50 76.95 77.70 77.62 78.25 78.21 77.83 77.25 76.56 77.42 77.41 77.36 77.03 77.59 77.31 78.08
76.00 75.89 76.44 76.50 76.66 76.23 76.20 77.01 77.65 77.74 78.01 78.36 78.21 77.48 76.75 76.36 76.88 77.05 77.16 77.64 77.34 77.42
76.20 76.44 76.33 76.46 76.77 76.70 76.44 77.08 77.58 77.48 77.75 77.86 78.01 71.11 68.75 74.25 75.17 76.74 76.34 75.97 76.78 77.65
76.39 76.55 76.36 77.02 76.62 76.57 76.42 76.86 77.32 77.37 77.55 77.59 78.01 68.28 66.50 68.81 75.46 75.14 75.54 76.63 76.35 76.62
76.18 76.36 77.12 76.74 76.59 76.52 77.02 76.84 76.71 77.14 77.65 77.74 78.09 68.35 64.74 66.36 74.14 75.49 76.03 76.24 75.78 75.97
76.33 76.53 76.85 76.56 76.49 76.80 76.84 76.97 77.05 77.26 77.60 77.67 77.62 65.94 64.67 65.36 72.63 73.73 74.79 75.30 75.53 76.18
77.22 76.94 76.80 77.13 76.97 77.44 77.63 77.28 77.54 77.56 78.03 74.91 78.21 67.25 62.78 65.05 74.92 73.91 74.05 75.28 75.72 68.28
78.73 77.09 77.62 78.05 78.00 78.00 77.83 77.69 77.65 77.61 78.11 78.99 77.73 77.46 61.38 59.33 74.98 74.74 74.50 74.36 74.44 75.60

GFSNIL_sfc_wetblb_081.txt.gz
Wetbulb
71.53 70.65 71.30 72.85 71.71 72.46 72.43 72.37 72.69 75.27 75.09 74.29 74.77 74.07 74.74 73.24 74.05 73.93 73.10 72.40 72.93 72.64
72.83 70.04 70.65 71.24 72.15 71.76 71.65 72.87 72.88 74.93 75.14 74.89 74.29 74.24 74.47 73.34 73.48 73.71 73.37 73.09 72.14 73.00
71.03 72.71 71.75 70.96 73.02 72.37 70.92 72.27 73.71 73.99 75.37 74.34 74.51 73.79 74.45 73.34 73.74 73.41 72.71 73.09 73.62 72.79
69.76 72.37 72.11 71.41 69.77 73.10 72.66 74.74 75.08 74.67 74.42 74.44 74.34 74.73 74.09 72.86 73.36 73.84 73.36 73.12 73.27 73.50
69.89 70.94 72.14 70.87 70.72 73.32 72.20 73.07 74.64 74.94 74.96 74.28 73.42 73.64 74.00 73.55 73.38 72.77 73.33 73.69 72.96 72.94
71.03 69.67 70.77 70.93 70.11 72.17 74.53 74.49 75.49 74.36 74.14 73.37 73.30 73.07 73.70 74.10 73.43 72.74 73.55 74.26 74.07 74.07
71.18 71.44 70.25 70.60 69.97 71.66 73.52 73.33 74.34 74.95 74.02 74.68 73.67 73.42 73.35 74.52 74.13 73.30 73.47 74.22 73.52 73.82
72.07 71.88 72.13 71.21 70.85 69.47 73.45 73.52 73.57 73.93 74.51 74.88 75.04 75.14 73.29 73.12 74.01 73.84 73.61 73.91 74.27 74.12
73.09 72.67 72.41 72.36 72.29 70.87 70.32 73.09 73.96 74.14 74.25 74.34 76.10 71.05 69.42 72.53 72.97 74.06 74.02 73.52 73.64 74.56
73.20 72.81 72.71 73.27 73.01 73.15 71.82 71.53 72.81 74.02 74.70 74.61 75.23 68.43 67.71 69.39 73.71 72.53 73.49 73.60 73.31 73.33
73.82 73.14 73.27 73.14 73.30 73.54 74.07 73.06 73.05 73.79 74.64 74.76 75.47 68.26 66.06 67.39 71.75 72.69 72.54 72.89 73.71 73.84
73.53 73.62 73.69 72.81 73.13 73.85 73.83 74.18 73.57 74.16 74.84 74.89 75.03 65.96 65.34 65.05 67.60 70.87 72.04 72.92 72.92 72.84
73.97 73.80 73.82 74.34 73.73 74.47 74.42 73.91 74.66 74.58 74.74 72.31 74.97 66.71 63.30 65.01 73.05 69.68 70.28 71.71 72.35 66.98
74.63 74.02 74.60 74.70 74.97 74.64 74.47 74.46 73.89 74.14 74.76 75.07 74.31 74.77 62.88 60.31 73.69 73.64 71.73 71.21 71.30 72.64

GFSNIL_sfc_wetblb_084.txt.gz
Wetbulb
68.84 68.68 70.05 70.39 71.02 72.00 71.83 71.66 72.52 72.22 73.15 73.07 71.68 72.22 72.89 72.30 72.30 72.76 72.12 70.83 71.06 71.20
70.85 68.70 69.19 70.93 71.00 71.83 71.90 71.41 71.88 73.41 73.34 72.90 72.76 72.33 72.93 71.76 71.89 72.55 72.28 71.46 70.71 70.42
69.64 70.93 68.59 69.84 70.66 70.32 71.01 70.82 71.20 72.94 74.06 73.19 72.93 72.84 72.90 71.70 72.15 72.16 71.42 71.70 71.39 71.13
68.88 70.16 70.39 69.55 69.84 71.87 69.72 70.88 72.21 71.91 73.88 73.41 73.04 72.34 71.96 72.25 71.74 71.89 71.46 71.19 71.39 71.78
68.36 69.36 71.04 70.84 69.11 70.11 71.09 73.10 73.05 72.49 73.59 73.52 72.81 72.64 72.13 71.61 72.46 72.04 72.18 72.35 71.60 71.66
67.86 68.10 69.90 71.32 70.44 68.46 70.56 71.36 73.38 73.08 72.70 73.12 73.00 72.38 72.74 72.76 72.29 71.58 71.53 72.25 72.29 72.27
69.54 67.95 68.16 70.99 69.91 70.61 70.87 71.39 72.34 73.04 72.85 72.97 72.80 72.50 72.05 72.25 72.06 71.92 71.88 72.34 72.99 73.09
70.74 70.25 68.33 68.52 70.59 69.37 71.10 72.13 73.17 73.56 73.06 73.12 72.95 73.10 71.56 72.14 72.14 71.66 71.66 72.18 72.74 72.81
70.69 70.54 70.15 68.44 68.59 69.15 68.56 71.80 71.48 72.82 73.48 73.00 74.22 69.09 68.34 70.93 71.70 72.71 72.34 71.75 72.18 72.89
70.41 70.60 70.32 70.76 69.29 68.88 68.57 67.69 71.48 71.68 72.42 72.96 74.07 67.34 67.10 68.75 72.41 71.66 72.39 72.50 72.42 72.28
71.79 70.70 70.56 70.82 70.75 70.17 70.24 68.65 67.89 72.03 72.47 72.38 72.88 66.36 65.69 67.38 72.17 72.55 71.84 72.45 72.96 72.42
72.19 71.56 71.26 71.12 71.26 71.51 71.31 71.24 70.02 69.52 71.44 72.74 73.27 64.44 64.33 65.74 71.45 72.08 71.75 72.13 71.59 72.49
66.38 72.50 72.15 72.07 72.06 72.61 72.58 72.66 72.88 72.02 71.96 69.60 72.94 65.05 63.01 65.12 73.32 70.61 70.23 70.80 71.59 65.69
66.40 69.97 73.42 73.10 72.92 72.74 72.84 72.67 72.79 72.89 72.92 73.19 72.87 73.17 61.59 60.69 73.27 73.52 72.26 70.85 71.03 71.23

GFSNIL_sfc_wetblb_087.txt.gz
Wetbulb
67.20 67.65 68.34 68.84 68.97 70.35 71.35 71.62 72.50 71.91 72.52 72.56 72.18 71.77 71.50 71.87 71.61 71.80 70.82 69.98 70.50 69.91
67.32 67.13 67.86 69.57 69.80 69.86 70.64 71.92 72.24 71.68 72.07 72.48 71.87 71.01 71.75 71.22 70.86 71.54 71.27 71.11 69.78 69.34
69.08 68.49 67.80 68.65 70.34 70.16 70.23 70.11 70.80 71.98 71.87 72.06 72.12 71.09 71.29 70.67 70.74 70.55 70.76 71.00 70.41 69.85
69.03 69.23 68.24 68.26 68.99 70.42 70.33 69.88 69.94 70.62 72.73 72.25 71.77 71.95 71.34 71.00 70.92 70.96 70.73 70.29 70.27 69.97
68.19 68.20 69.53 68.75 68.39 68.89 70.51 70.02 70.25 70.63 70.80 72.51 72.42 71.90 71.13 71.13 72.13 70.78 70.43 70.74 70.14 70.36
67.46 67.61 68.03 69.65 69.35 67.82 69.48 70.25 71.50 71.25 70.84 71.80 72.24 71.80 71.90 71.17 70.97 71.09 71.17 71.57 71.42 71.32
67.77 67.51 67.87 68.53 69.99 70.16 68.53 69.43 70.31 72.20 71.94 71.65 72.24 72.31 71.90 71.97 71.43 71.05 71.26 71.20 71.36 71.65
69.26 68.32 67.95 67.87 68.79 69.76 70.08 69.97 70.03 70.81 71.95 71.84 71.83 72.29 71.22 71.45 71.71 71.09 70.69 70.93 71.22 71.62
69.44 69.27 67.64 66.88 67.44 69.08 69.04 70.09 70.61 70.98 70.98 71.73 72.78 68.16 67.33 70.59 70.90 70.78 70.66 70.17 70.42 71.54
68.78 69.16 69.26 68.04 66.58 67.02 68.47 68.46 69.30 70.62 71.67 71.66 72.04 66.37 66.00 67.80 71.62 70.83 70.87 70.71 70.78 70.93
70.04 69.30 69.56 69.53 68.22 66.80 67.57 67.84 67.31 68.56 70.57 71.58 72.58 65.67 64.32 66.43 70.80 70.97 70.95 71.18 71.17 71.22
67.57 69.55 70.30 69.40 69.39 69.68 68.25 67.75 67.70 67.19 66.85 69.85 70.98 63.50 63.87 64.81 70.39 71.25 71.79 71.90 71.33 71.77
66.54 66.10 67.95 70.87 69.99 70.34 70.49 69.67 69.87 68.73 67.83 66.38 69.75 63.13 61.45 64.06 71.77 71.17 71.25 71.75 71.47 65.27
65.19 66.85 66.62 67.53 71.62 71.16 70.50 70.72 70.54 70.45 70.25 69.14 68.91 70.29 60.57 59.98 71.65 72.07 71.45 71.12 71.25 70.82

GFSNIL_sfc_wetblb_093.txt.gz
Wetbulb
74.89 73.84 74.44 75.88 75.04 74.95 75.04 75.86 78.23 77.84 77.57 77.48 77.38 77.00 77.34 76.53 76.76 77.48 76.68 76.11 77.76 76.96
74.49 74.31 74.52 76.05 76.45 75.42 76.74 76.17 77.38 77.81 77.56 77.23 77.66 77.33 77.50 76.17 77.01 77.25 77.30 77.17 77.05 76.26
73.44 74.01 74.28 75.20 75.51 75.97 76.52 76.81 76.88 77.14 77.25 77.37 77.48 77.86 77.59 76.70 77.12 76.93 76.68 76.11 76.77 76.98
73.32 73.35 73.81 73.48 74.89 75.81 76.59 76.94 77.00 77.34 77.40 77.26 77.26 77.75 77.58 76.90 76.62 76.63 76.67 76.63 76.34 76.26
73.74 73.49 73.02 73.13 73.53 75.08 75.69 76.86 77.00 77.08 76.86 76.84 77.06 77.64 76.95 76.57 76.19 75.85 75.83 76.20 76.56 76.10
72.99 72.90 73.26 73.35 73.71 74.01 74.64 75.70 76.42 76.74 76.56 76.57 76.59 76.92 77.26 77.14 76.81 76.64 76.59 76.36 76.31 76.20
72.76 73.52 73.34 74.31 74.44 73.86 74.14 74.45 75.03 75.75 76.00 76.53 76.89 76.87 76.90 76.80 77.03 76.95 76.63 76.91 76.74 76.43
73.37 73.81 73.77 73.89 74.27 74.49 74.27 74.12 74.97 75.03 75.23 75.89 76.08 76.10 76.89 76.89 76.73 76.74 76.78 76.89 77.02 76.69
73.30 73.31 72.97 73.23 73.23 73.59 73.98 74.13 74.17 74.31 74.42 74.56 74.32 68.25 68.17 74.04 76.69 77.17 76.80 76.39 76.84 77.23
72.86 72.87 73.08 73.06 72.98 73.04 72.99 73.68 73.68 73.74 73.83 74.55 75.56 65.41 66.31 68.43 76.58 76.79 76.89 76.88 76.78 76.35
65.33 71.92 73.21 73.11 72.89 73.01 72.77 72.84 73.83 73.53 73.83 74.32 74.56 64.68 64.20 66.38 75.25 76.92 76.92 77.01 76.87 76.73
62.57 64.21 66.51 72.00 72.72 72.86 72.28 72.45 72.41 73.03 73.73 73.78 74.61 62.83 62.47 65.71 73.24 74.33 76.41 76.59 76.92 77.06
62.35 62.70 63.94 66.04 68.10 70.98 72.67 71.43 71.73 71.85 73.16 69.79 74.36 64.67 60.56 64.42 72.41 72.83 72.59 75.69 77.30 66.92
61.73 61.87 63.65 65.40 67.13 67.92 70.19 72.01 72.84 72.59 73.13 73.29 72.51 73.04 59.61 58.62 73.05 72.62 72.61 72.12 72.58 73.52

GFSNIL_sfc_wetblb_096.txt.gz
Wetbulb
77.51 76.33 76.15 76.62 74.78 75.28 75.37 76.18 79.11 77.41 78.31 77.99 77.73 78.30 78.68 77.42 76.44 77.83 77.08 77.04 77.56 75.76
77.36 77.00 76.09 76.84 76.93 75.88 77.31 76.55 78.56 78.23 76.86 77.15 77.61 78.22 78.62 77.03 77.48 77.89 77.67 77.54 78.04 76.55
77.09 77.34 77.22 76.68 76.64 77.00 77.34 77.82 77.83 78.39 78.11 77.45 77.38 77.91 78.09 77.57 78.13 77.79 76.83 76.32 77.44 77.83
76.20 76.84 76.93 76.02 76.36 76.90 78.17 78.33 78.27 78.74 78.59 78.11 77.79 78.25 78.63 77.80 76.96 77.46 77.05 77.31 77.20 77.11
75.75 76.57 76.11 76.01 76.20 76.74 77.16 78.40 78.19 78.18 78.88 78.56 78.43 78.76 77.91 76.20 76.44 76.81 76.52 77.05 77.17 76.83
74.96 75.23 75.50 76.08 76.64 76.43 76.48 77.05 77.35 77.69 77.84 78.18 78.51 78.46 78.82 77.68 77.00 77.00 77.06 77.40 77.27 76.71
74.87 75.27 75.36 76.39 76.88 76.79 76.79 76.54 76.53 77.11 77.45 77.94 78.30 78.27 78.17 78.24 78.06 77.89 77.09 78.02 78.02 77.32
75.41 74.60 75.22 75.77 75.85 76.74 76.89 76.75 76.79 76.33 76.27 76.94 76.88 76.96 78.18 78.05 77.86 78.28 78.10 78.21 78.40 77.87
74.43 75.27 75.26 75.88 76.27 76.36 76.48 76.78 76.78 76.44 75.85 75.47 74.64 68.77 68.08 74.34 77.57 78.02 77.94 77.40 78.38 78.53
71.44 73.02 74.20 75.14 75.39 75.67 75.87 76.33 76.21 76.45 76.38 76.00 75.94 65.92 65.69 68.88 76.39 76.85 77.57 77.96 77.85 77.53
67.26 67.42 70.03 73.77 74.64 75.47 75.39 75.37 75.59 75.74 76.37 76.16 76.41 65.62 63.52 66.43 75.69 77.13 78.23 78.05 77.83 78.33
63.12 63.57 65.19 68.02 70.71 71.09 75.10 75.06 75.32 75.55 75.95 76.20 76.44 63.38 62.83 66.45 73.97 73.47 76.88 77.86 78.90 79.12
61.81 62.63 62.83 64.41 65.91 69.47 70.34 73.29 74.07 74.25 75.58 71.74 76.15 65.88 60.71 64.99 74.03 74.33 72.14 75.76 78.54 68.13
62.20 61.65 62.44 64.56 65.79 65.23 67.51 70.29 71.35 72.14 74.67 75.15 74.28 75.15 60.01 58.81 74.07 73.95 73.87 73.05 72.17 73.14

GFSNIL_sfc_wetblb_099.txt.gz
Wetbulb
78.39 76.31 75.31 77.01 75.53 75.58 73.14 75.32 78.77 77.66 77.56 78.08 78.22 78.12 78.84 77.32 76.50 79.13 77.17 77.31 78.77 76.19
79.01 78.38 76.91 78.44 78.19 76.22 77.89 77.20 78.68 77.24 78.04 78.08 77.80 78.35 79.15 77.76 77.41 78.01 77.87 78.14 78.25 76.57
77.82 78.32 78.17 77.43 77.12 78.41 78.60 77.72 74.53 78.02 76.94 77.25 77.78 77.98 79.09 78.71 78.43 78.25 77.08 75.68 79.47 78.65
77.50 77.88 78.18 77.21 77.02 77.12 78.55 78.26 78.25 78.57 77.97 77.53 77.08 77.63 78.70 78.70 78.42 77.71 78.11 77.70 77.47 77.65
77.60 77.55 77.46 77.40 77.17 77.49 77.99 79.03 78.27 78.68 78.58 78.35 77.92 79.32 77.63 76.66 76.16 76.45 76.23 76.26 77.42 76.61
77.11 76.98 77.08 77.25 77.66 77.78 78.44 78.19 77.72 78.77 78.94 77.78 78.30 78.90 79.10 78.19 76.93 77.05 77.02 76.89 76.66 76.44
76.98 77.28 76.90 77.15 77.95 77.87 78.48 78.10 78.57 79.47 79.39 78.49 78.49 78.02 77.61 78.47 79.04 78.10 77.08 77.48 77.32 77.39
76.47 76.46 76.86 77.04 77.29 77.62 78.42 77.84 78.65 78.36 78.32 77.72 77.44 76.60 78.74 78.80 78.63 79.28 78.83 78.53 78.27 78.08
73.86 75.21 76.14 76.20 77.25 77.35 77.10 78.75 78.90 77.93 77.83 77.28 74.92 68.80 68.04 73.58 77.98 79.00 79.34 78.91 79.45 79.96
67.13 68.84 73.21 75.35 76.08 76.55 76.93 76.82 77.72 78.19 77.86 77.90 78.37 67.83 64.93 68.01 76.50 77.72 79.10 79.35 79.93 77.86
63.96 65.27 67.26 69.00 74.80 75.47 76.68 76.56 77.09 76.25 77.44 77.99 77.98 66.73 64.61 65.71 75.41 77.25 78.36 78.75 79.57 79.34
63.50 63.87 64.57 66.56 67.60 70.55 74.17 74.31 76.03 76.30 76.99 76.96 78.28 65.05 63.11 66.47 74.68 74.48 76.12 78.03 78.88 79.47
65.81 62.80 63.13 63.86 64.45 66.17 68.70 71.95 72.32 74.10 76.20 72.62 76.89 68.15 61.12 65.09 74.94 75.04 74.58 76.49 77.03 68.69
66.16 66.09 64.46 64.07 65.12 65.49 65.64 67.62 69.07 70.33 72.54 75.08 75.25 75.45 60.85 59.11 75.47 74.92 74.54 74.68 75.24 75.00

GFSNIL_sfc_wetblb_102.txt.gz
Wetbulb
78.18 76.05 74.64 75.79 74.97 71.84 73.18 72.32 76.62 77.69 78.17 78.91 78.07 77.87 78.85 78.69 77.83 78.73 77.75 78.01 78.83 77.08
78.87 78.85 77.72 79.59 79.85 77.12 72.82 73.83 78.46 77.41 78.24 78.78 78.05 78.67 78.79 78.06 77.95 78.10 79.11 78.60 78.18 78.12
78.35 78.82 78.99 80.55 79.20 80.81 75.70 73.63 72.62 69.05 77.45 79.37 79.17 79.34 78.30 77.56 77.98 77.54 77.85 76.84 78.16 78.14
77.80 78.30 79.03 78.44 79.27 78.75 80.53 73.89 66.84 66.60 70.56 77.97 78.56 78.75 79.09 77.73 77.26 76.36 77.10 78.11 77.26 77.88
78.46 78.42 77.91 78.14 78.49 79.23 79.08 80.24 75.39 72.61 76.19 76.25 78.21 77.84 78.04 76.72 76.96 76.36 76.70 77.53 77.19 77.19
77.34 76.85 78.34 78.44 78.81 78.70 79.08 79.39 79.71 80.19 78.66 78.44 77.08 77.42 77.90 77.61 77.53 77.32 77.21 77.62 77.05 76.97
76.34 77.10 77.50 78.55 78.33 78.86 79.01 78.31 78.77 79.35 79.12 78.71 78.27 77.59 77.17 76.79 77.12 77.32 77.16 77.88 77.85 77.54
70.71 74.76 76.75 77.74 77.29 77.75 78.33 78.16 78.29 78.37 78.58 78.73 77.85 76.58 77.26 77.77 77.34 76.36 76.87 77.43 78.05 78.05
68.58 68.90 69.35 73.11 75.40 77.27 77.25 77.80 78.41 77.49 77.22 76.90 76.02 69.31 68.06 74.80 76.46 77.28 76.56 75.88 77.50 78.77
66.37 67.33 67.56 68.94 69.70 74.09 75.57 76.27 77.01 76.94 77.00 76.88 77.37 68.71 65.72 66.76 74.66 76.13 77.04 77.24 76.94 76.51
64.52 64.46 65.21 66.13 66.26 68.16 70.59 74.33 75.08 76.30 76.62 76.31 76.67 67.63 65.59 66.41 74.16 75.29 76.18 76.13 76.91 77.83
65.97 64.33 63.76 64.53 65.36 65.75 67.25 68.93 72.62 74.59 75.04 75.95 76.01 67.45 62.54 65.68 74.51 74.55 74.54 74.50 76.08 76.40
65.47 66.79 65.30 64.49 65.12 66.78 66.52 67.74 68.83 69.91 73.58 71.65 75.22 67.67 63.54 64.42 74.02 74.44 74.55 75.25 75.25 67.79
63.06 63.97 66.62 66.97 67.75 65.97 64.90 65.59 67.29 67.49 70.33 71.66 72.57 74.37 62.78 59.60 72.28 74.59 74.44 74.45 74.24 75.01

GFSNIL_sfc_wetblb_105.txt.gz
Wetbulb
71.11 69.91 67.23 69.68 71.98 70.84 71.23 71.14 71.43 74.50 74.17 73.77 74.32 74.24 73.40 72.26 72.91 73.59 72.30 72.73 72.18 72.87
72.81 70.90 70.02 70.05 72.46 70.66 71.76 73.28 73.85 73.86 74.14 74.11 73.74 73.77 73.78 72.64 72.07 72.69 72.98 71.92 72.96 72.83
73.72 73.78 74.11 73.80 72.95 72.02 72.60 71.31 70.43 70.70 72.50 73.79 74.14 74.07 72.68 72.50 73.26 73.36 72.13 73.14 70.93 72.18
73.61 73.80 74.04 73.62 72.66 72.50 72.06 71.31 68.77 69.36 68.02 70.26 73.57 73.86 73.43 72.92 72.43 72.52 72.66 72.77 72.43 72.23
73.11 73.73 73.82 73.79 74.19 73.12 71.52 71.30 69.99 67.42 67.75 70.05 73.28 73.50 72.95 72.00 72.92 72.47 71.59 72.48 72.79 71.94
72.56 73.49 73.28 74.10 74.44 74.17 73.82 72.57 70.51 69.80 71.50 72.68 73.30 73.53 74.11 74.10 73.16 72.85 73.02 73.04 72.96 72.23
68.59 71.13 72.52 73.72 74.53 74.79 74.52 73.92 73.99 73.69 74.07 73.14 73.97 73.71 73.59 73.89 73.68 73.48 73.37 73.66 73.65 73.67
67.96 68.50 69.47 71.57 72.66 73.54 74.08 74.37 74.34 74.24 74.78 74.86 74.69 74.82 73.84 73.65 73.52 72.95 72.63 72.99 74.09 74.56
67.67 67.69 67.76 68.41 67.99 71.91 72.62 72.88 73.53 73.73 73.07 72.83 75.42 70.37 68.35 72.23 73.07 73.62 72.24 71.89 72.84 73.99
65.02 65.46 66.16 67.60 67.65 67.92 68.01 71.17 71.77 72.45 73.26 73.32 73.94 69.04 66.42 66.39 70.55 72.71 73.45 73.29 73.22 73.47
62.12 62.73 64.70 65.11 65.60 66.66 67.63 68.30 69.09 71.39 72.49 72.86 73.58 68.09 65.42 65.68 67.94 69.84 70.70 71.90 72.62 72.91
61.08 62.77 61.56 61.12 63.11 64.69 65.80 66.75 67.81 68.87 68.17 69.79 72.35 66.89 63.37 65.05 68.84 70.27 70.98 71.34 71.79 72.59
59.53 59.56 59.26 61.27 62.01 62.22 63.31 64.75 66.59 66.50 66.84 66.62 69.09 65.97 62.54 63.27 69.79 71.49 70.22 71.99 72.02 66.65
57.59 57.58 57.48 58.84 62.55 63.36 62.22 62.21 62.60 64.35 65.45 67.18 67.28 67.55 63.16 60.28 66.83 70.49 71.13 70.99 72.00 72.34

GFSNIL_sfc_wetblb_108.txt.gz
Wetbulb
69.24 70.41 70.43 69.99 70.30 70.88 70.77 70.37 71.57 72.85 72.98 72.72 72.35 72.15 72.26 71.16 71.59 71.59 71.45 71.05 70.97 71.17
70.23 69.17 67.14 68.55 70.87 71.62 70.64 70.69 73.08 73.23 73.10 73.00 72.84 72.71 72.35 71.64 71.07 71.40 71.66 70.71 70.11 71.50
70.93 70.44 68.87 68.72 69.99 70.51 70.46 71.98 71.66 71.36 72.70 72.87 72.72 72.46 72.53 70.79 71.89 71.53 71.33 71.39 70.77 70.56
71.27 72.75 72.33 71.83 72.00 71.62 70.83 70.06 68.20 70.81 69.95 71.35 72.42 72.79 71.78 70.77 72.14 70.85 71.06 71.26 71.03 70.40
70.89 72.12 72.36 72.40 71.83 71.46 70.64 70.21 68.16 68.71 67.04 68.14 70.79 72.07 72.00 71.68 72.17 70.68 70.75 70.89 71.11 71.26
69.61 71.34 72.37 71.86 72.57 71.56 70.66 70.37 69.11 67.78 66.74 66.90 70.31 72.28 72.54 71.85 70.96 71.68 71.45 70.95 70.98 71.43
67.87 68.62 69.88 70.93 71.58 72.36 72.12 70.38 70.26 68.61 68.63 69.79 71.63 72.40 72.51 72.87 72.73 72.22 72.14 72.26 72.43 72.37
67.51 68.03 68.48 68.39 68.53 71.53 72.16 72.99 72.61 71.46 71.78 72.38 72.11 73.34 72.08 71.99 71.96 71.95 71.94 72.23 72.45 72.95
65.98 66.34 67.22 67.49 68.21 68.33 68.71 71.07 71.35 72.00 72.65 72.61 74.95 69.83 68.17 71.55 71.92 71.96 71.94 71.15 71.17 71.47
64.20 63.70 64.59 66.14 66.77 67.15 67.04 68.01 68.55 69.81 70.88 71.76 72.63 68.22 66.23 66.60 68.70 70.89 71.69 71.70 71.19 71.72
62.27 62.90 63.31 64.17 63.90 65.20 66.75 67.28 67.71 67.62 67.78 68.35 71.05 64.88 64.17 65.31 67.89 68.21 68.67 69.60 71.13 71.91
58.91 58.77 60.38 61.46 62.95 63.92 64.67 65.60 66.07 67.38 67.65 67.63 68.28 63.20 62.48 64.38 68.42 69.43 69.71 70.40 70.52 70.93
55.97 56.60 56.70 57.67 60.62 62.29 61.83 62.29 64.18 65.94 66.42 64.76 67.65 63.56 61.21 63.02 68.01 68.57 70.06 70.70 71.24 65.27
53.98 54.07 54.99 55.51 56.77 58.03 59.99 62.11 61.77 61.68 62.70 65.82 66.19 66.75 60.84 60.30 67.11 67.78 68.73 69.75 70.61 69.52

GFSNIL_sfc_wetblb_111.txt.gz
Wetbulb
67.36 66.50 68.74 69.36 69.80 70.09 70.03 70.59 71.27 71.69 71.64 71.61 71.42 71.16 71.51 70.71 70.71 71.02 70.63 70.14 70.67 70.60
67.65 69.14 69.07 69.39 69.77 70.43 70.55 70.69 70.87 71.98 72.41 72.03 71.94 71.97 71.23 70.62 70.73 70.51 70.41 70.23 69.63 70.05
69.76 69.51 67.67 68.28 69.04 70.50 70.24 70.15 70.66 71.65 72.58 71.98 71.66 71.70 71.31 70.76 70.36 70.48 70.64 70.35 69.91 69.59
69.71 70.94 69.92 68.75 69.08 69.73 69.95 70.04 70.69 70.69 71.50 71.84 71.67 71.48 71.05 70.07 70.12 70.09 69.63 70.48 70.21 69.99
68.70 69.44 70.53 71.06 72.07 71.56 70.18 70.06 69.02 68.69 69.08 70.11 70.50 71.49 71.73 70.76 71.45 70.69 69.50 69.76 69.49 69.68
67.78 69.20 70.68 71.33 71.97 71.42 70.44 69.80 69.07 66.79 68.40 67.79 68.65 70.46 71.44 71.33 71.01 70.30 70.44 70.54 69.36 70.06
67.64 68.88 68.93 70.01 70.39 71.06 70.71 69.77 69.73 67.98 66.66 67.27 66.73 69.49 71.60 72.01 71.49 71.14 71.39 71.43 71.15 71.36
67.17 67.91 67.55 67.60 67.60 68.84 70.08 71.11 70.77 70.07 68.97 68.71 69.48 70.76 70.90 71.29 71.23 71.15 71.25 71.70 71.91 71.85
64.55 66.79 66.94 66.96 66.96 67.08 67.87 68.63 69.56 70.64 71.71 71.03 73.18 68.66 67.10 70.51 71.02 71.16 70.83 70.57 70.96 71.31
62.80 62.93 64.76 65.55 65.57 65.90 66.33 67.60 68.16 68.12 68.23 68.39 69.60 63.13 63.59 66.05 69.38 70.35 70.43 70.51 70.74 71.09
58.20 60.42 62.52 62.81 62.36 63.13 64.45 64.42 65.59 66.83 67.44 67.12 68.79 62.27 62.06 64.15 67.08 68.21 68.41 68.52 69.31 70.03
55.38 56.24 57.22 58.43 61.68 62.70 63.01 63.41 64.02 65.28 65.91 66.18 67.26 62.81 60.82 63.67 67.71 68.36 68.34 69.31 69.80 69.87
54.61 54.95 55.41 55.39 57.03 59.63 61.38 62.52 63.29 63.55 64.76 63.87 66.78 63.33 61.72 62.97 68.00 66.98 68.02 68.95 69.54 61.12
51.02 51.83 52.37 52.60 53.52 54.76 55.75 57.71 59.35 61.95 62.27 63.03 63.76 64.33 56.83 57.19 66.42 66.14 67.46 68.23 68.79 67.75

GFSNIL_sfc_wetblb_114.txt.gz
Wetbulb
69.11 69.44 70.10 70.74 71.16 71.59 71.42 72.30 73.22 73.09 72.90 73.09 73.09 73.06 73.87 73.41 73.20 73.85 73.07 73.03 73.16 72.68
68.97 67.91 69.14 70.80 71.36 71.84 72.18 72.45 72.83 73.14 73.58 73.49 73.62 73.33 73.63 72.94 73.42 73.27 73.07 73.19 72.85 72.63
69.30 69.69 70.56 70.72 70.46 71.78 72.21 72.54 72.34 72.75 73.48 73.65 73.76 73.51 73.41 73.13 73.09 73.19 73.02 72.70 73.39 72.95
70.89 71.09 70.59 69.16 69.32 70.68 72.39 72.09 71.95 71.78 72.35 72.67 73.00 73.17 73.07 73.12 72.70 72.74 72.83 73.06 73.09 72.98
69.72 70.62 71.77 71.74 70.88 70.55 71.16 71.57 72.00 71.87 71.58 72.75 72.95 73.51 73.01 72.82 73.37 72.74 72.23 72.18 72.34 72.53
68.62 69.03 70.31 71.65 72.58 73.00 72.09 71.47 70.56 69.95 70.27 70.98 71.53 72.20 72.97 73.01 72.77 72.84 72.66 72.60 72.49 72.28
67.54 68.69 69.10 70.81 72.20 72.89 72.71 71.65 71.32 70.07 69.10 70.18 70.43 70.77 71.80 72.80 72.71 72.69 72.80 73.02 73.22 72.86
67.27 68.44 68.56 68.80 69.34 70.16 71.52 72.05 72.04 71.31 71.15 70.32 69.89 69.77 70.38 72.26 73.19 73.21 73.29 73.59 73.80 73.82
64.89 66.42 66.95 67.61 67.50 68.47 69.03 69.66 70.11 69.97 70.96 72.20 72.39 64.14 66.20 69.63 72.66 72.93 72.77 72.38 73.37 73.72
63.53 63.91 64.31 64.88 65.97 66.89 67.00 67.12 67.63 67.97 68.21 69.34 69.48 62.15 62.85 65.94 71.64 72.27 72.83 72.81 72.98 72.75
58.16 59.13 61.60 63.50 63.57 63.27 63.93 64.24 65.45 66.62 67.41 67.68 68.55 62.37 61.22 63.53 70.49 70.83 70.92 70.80 70.95 71.34
56.68 56.61 57.08 58.28 60.41 61.86 63.69 64.21 64.88 65.73 66.33 67.07 68.01 61.48 60.38 64.12 69.28 69.72 70.18 71.00 71.51 71.61
55.10 54.76 55.11 55.68 57.01 58.71 60.59 62.25 63.88 63.19 63.76 62.89 67.43 57.64 58.56 62.39 68.26 68.65 69.32 70.62 69.82 60.47
53.01 53.54 53.49 54.42 54.84 54.98 56.45 56.86 57.90 60.17 61.56 62.16 62.00 61.88 55.46 56.75 65.06 66.00 66.40 66.89 67.41 68.08

GFSNIL_sfc_wetblb_117.txt.gz
Wetbulb
75.13 74.00 74.35 75.24 74.61 74.81 75.42 78.18 77.16 76.41 77.15 77.08 77.11 76.77 77.55 77.22 77.18 77.87 77.24 76.00 76.83 76.37
74.63 74.01 74.17 75.23 75.89 75.46 76.72 77.19 76.50 76.88 76.74 76.89 76.80 76.92 77.20 76.42 76.97 77.32 77.38 77.58 77.31 76.93
74.66 74.42 73.81 74.28 75.14 75.91 76.39 76.62 76.90 76.62 76.60 77.22 77.19 77.27 77.05 76.39 77.00 76.57 76.46 76.40 77.30 77.53
74.76 74.25 74.63 74.31 74.74 75.29 76.01 76.35 76.40 76.54 76.80 76.89 76.99 77.04 76.96 77.10 76.54 76.04 76.44 76.69 76.89 76.63
74.52 75.16 74.97 74.49 73.81 74.63 74.94 75.92 76.15 76.26 75.98 76.07 76.56 76.73 76.54 75.83 75.61 75.93 75.54 75.72 76.35 76.03
73.16 73.48 74.31 75.26 75.96 75.51 75.68 76.16 75.59 75.32 75.15 75.24 75.79 76.63 76.45 76.67 76.13 75.82 76.08 76.11 75.91 75.86
70.99 71.41 71.20 73.33 75.71 76.31 76.80 76.07 75.41 75.29 74.92 74.46 74.55 75.14 75.58 76.27 76.45 76.27 76.11 76.47 76.05 75.80
69.73 70.40 71.51 71.34 72.84 75.46 76.41 76.23 76.13 75.48 75.12 74.16 73.74 73.73 74.31 74.86 75.30 75.69 75.41 76.14 76.55 76.59
69.29 69.40 68.55 69.41 70.86 72.28 73.57 74.43 74.99 74.77 75.47 75.87 75.05 63.64 65.70 70.70 74.65 75.92 76.22 76.16 76.69 77.28
65.86 67.55 67.71 67.95 67.87 68.75 69.73 72.55 72.73 72.63 72.35 71.81 71.64 62.42 63.64 66.79 76.11 76.59 76.65 76.93 76.96 76.82
61.86 63.94 65.44 66.95 67.34 67.83 68.36 69.39 69.78 70.29 71.32 71.55 69.78 61.22 61.15 63.89 75.22 75.92 75.26 75.53 75.64 75.60
61.72 61.76 60.41 61.08 63.10 66.00 66.61 67.13 67.28 68.88 69.26 70.28 70.16 61.12 61.42 67.00 71.68 73.09 73.32 73.69 73.72 73.74
58.24 58.52 58.50 58.95 58.94 61.48 63.74 64.48 65.51 67.51 68.15 63.17 65.41 56.47 56.71 62.62 67.43 66.69 68.12 70.12 68.10 61.33
55.78 56.00 56.76 57.71 58.98 60.21 61.02 62.20 62.81 63.89 64.59 65.28 62.01 59.03 53.41 53.92 64.55 63.50 63.83 64.25 64.76 66.78

GFSNIL_sfc_wetblb_120.txt.gz
Wetbulb
76.41 76.44 77.69 76.29 75.01 74.43 74.64 75.73 77.48 77.68 77.77 77.99 78.34 78.09 79.01 77.45 77.10 78.21 78.25 76.88 78.01 77.26
76.79 76.63 77.86 77.54 76.89 75.90 76.52 75.37 76.65 76.94 76.91 77.32 77.45 78.13 78.52 76.40 77.43 77.95 77.51 77.94 78.18 77.03
76.42 77.04 77.51 78.01 77.33 77.45 77.36 76.73 77.11 76.69 76.88 77.07 77.51 77.67 78.18 77.00 78.02 78.11 76.89 75.67 77.77 77.69
75.83 76.61 77.13 76.02 76.95 77.98 77.69 77.49 77.28 77.56 76.88 76.75 76.94 77.66 78.20 77.01 77.00 77.15 77.17 77.40 77.08 77.15
75.90 75.97 75.57 76.54 77.02 77.68 78.27 78.84 78.13 77.68 77.18 77.06 76.90 77.39 77.16 75.91 75.58 76.10 75.84 76.12 76.46 76.50
75.21 75.43 75.59 75.87 76.04 76.87 77.20 77.85 78.05 78.11 77.83 76.38 76.65 77.14 76.85 76.85 76.40 76.27 75.92 76.08 76.31 76.05
75.36 75.56 75.53 76.67 77.12 77.80 77.47 77.69 78.05 78.09 77.84 77.28 77.15 77.44 77.07 76.97 76.62 76.37 75.82 75.92 76.14 76.24
73.42 74.83 75.01 74.93 76.21 77.47 77.25 76.37 76.75 77.54 77.59 77.12 76.43 76.27 76.95 76.84 76.65 76.29 75.64 75.72 76.34 76.60
71.93 72.32 72.30 72.82 73.34 74.69 76.71 77.13 77.81 77.35 76.95 76.76 76.20 64.59 66.94 71.92 76.43 76.59 76.54 75.94 76.42 77.23
70.65 71.19 71.81 71.63 72.19 71.21 72.60 74.97 75.83 76.26 75.97 75.55 74.35 62.56 63.82 67.44 76.45 76.96 76.98 77.18 76.72 76.09
66.99 68.38 69.27 69.99 70.71 71.24 71.63 71.89 72.63 73.17 73.91 72.57 68.84 61.31 61.90 65.00 76.86 77.21 76.94 76.99 77.02 76.92
62.24 62.87 63.85 65.26 67.98 69.92 70.51 70.80 71.07 71.39 72.35 67.65 65.03 56.73 57.88 65.37 75.18 74.64 74.27 73.00 70.21 73.80
60.77 61.88 60.82 60.82 64.97 67.09 69.08 67.36 70.25 68.54 67.23 63.63 64.05 53.35 53.78 61.51 71.19 70.53 71.31 71.27 70.54 61.09
60.34 59.41 61.01 62.88 64.33 63.67 65.80 67.63 65.20 64.83 65.27 62.14 60.86 57.02 52.41 52.90 65.50 64.94 66.55 65.98 67.31 66.69

GFSNIL_sfc_wetblb_123.txt.gz
Wetbulb
76.99 75.61 75.66 76.39 74.55 73.96 73.97 75.34 76.86 77.50 77.88 78.03 78.42 77.95 78.65 77.71 76.87 78.81 77.76 77.88 79.50 77.16
76.86 76.23 75.70 76.86 77.89 75.67 77.07 76.06 76.84 77.88 78.22 77.63 77.96 78.00 78.56 76.39 77.11 78.13 77.84 78.00 78.01 77.29
76.42 76.78 76.61 76.69 77.05 77.22 77.54 76.63 77.14 76.93 76.85 77.23 77.74 77.79 78.62 78.33 79.03 77.82 76.93 76.05 78.03 78.41
75.99 76.25 77.04 75.91 76.63 77.39 77.96 77.95 77.25 77.22 77.21 76.93 76.83 77.50 78.14 78.41 77.81 77.07 77.30 77.24 77.25 76.87
76.05 76.11 76.24 76.55 77.02 77.62 77.66 78.32 77.83 77.40 77.47 77.25 77.02 77.79 77.01 76.29 75.92 75.92 75.76 75.80 76.87 76.00
75.41 75.24 75.60 76.52 76.90 77.37 77.41 78.13 77.43 78.09 77.19 77.34 76.99 77.31 77.44 77.43 76.87 76.27 75.84 75.74 75.55 75.61
76.06 75.94 75.25 76.90 76.95 76.95 77.69 77.04 77.14 77.71 77.31 77.14 77.28 77.50 77.23 76.86 77.03 76.70 76.21 76.09 76.06 75.82
77.20 77.28 76.51 76.67 76.86 76.88 77.11 75.49 77.36 77.35 76.97 76.83 76.76 75.28 77.41 76.81 76.09 76.45 75.88 75.91 75.85 76.42
75.14 75.25 75.47 76.20 76.50 76.98 76.94 77.10 77.61 76.95 76.97 76.82 75.99 64.71 67.11 72.24 76.93 76.57 76.45 76.20 76.63 77.18
72.61 72.26 73.54 74.26 74.20 74.89 75.83 77.24 76.89 76.56 76.41 75.87 73.81 62.75 64.40 67.84 75.62 76.31 76.54 76.89 77.11 76.34
68.83 69.77 71.93 72.41 72.71 73.36 73.71 74.65 75.22 75.19 75.50 70.80 64.28 58.05 59.62 63.42 73.89 77.03 76.86 76.44 76.56 76.55
63.53 64.99 65.22 67.48 69.11 71.10 72.12 72.73 72.52 72.26 68.58 66.54 62.59 55.13 56.61 62.52 75.74 75.57 74.96 73.03 70.89 72.48
61.74 61.07 60.95 63.48 63.28 67.33 69.25 70.13 68.21 67.26 66.76 61.65 62.81 53.89 54.55 59.43 74.78 73.19 74.25 72.95 67.91 57.79
59.48 60.67 62.30 62.67 62.24 63.72 66.89 66.16 64.82 62.80 60.99 61.34 61.52 58.06 53.40 54.12 66.09 66.93 68.59 68.57 68.53 66.34